GFSSE_850_spd_060.txt.gz
Wind_Speed
25 25 30 28 30 33 35 34 31 29 26 24 22 18 15 16 19 21 21 22 23 25 25 25 25 23 21 19 20 20 20 20 19 19 18 16 16 14 13 12 15 13 10
26 28 32 31 33 34 35 34 32 29 27 24 21 18 19 21 21 22 23 24 25 25 26 25 24 22 20 18 19 19 18 18 17 18 22 16 15 14 13 12 11 11 9
28 29 34 34 34 35 35 34 32 30 26 23 22 23 24 23 23 24 25 25 25 25 24 23 22 20 19 17 17 17 16 17 16 18 20 14 15 13 12 11 10 9 7
27 32 32 36 36 36 36 34 31 28 25 25 26 26 25 25 25 27 27 27 25 24 23 21 20 20 18 16 15 15 15 16 16 20 14 14 14 12 11 10 9 8 10
30 33 34 38 37 36 35 33 31 29 29 29 28 26 26 27 29 29 28 28 26 23 21 21 19 18 16 15 14 14 15 15 20 14 14 13 12 12 10 9 9 7 7
29 35 37 39 38 36 34 32 31 31 31 30 29 28 29 30 30 29 28 26 24 22 21 20 17 16 14 14 13 13 14 15 16 13 12 13 13 12 11 10 8 7 7
27 36 39 41 38 35 34 33 33 33 32 30 29 31 32 32 31 29 27 25 22 21 20 18 16 14 12 12 12 12 13 15 12 11 12 12 12 11 12 11 10 8 8
24 12 25 29 32 30 28 26 27 32 31 32 32 33 33 32 31 28 26 23 22 20 18 16 14 12 11 12 12 13 14 16 12 11 11 10 12 11 12 12 11 10 9
20 29 37 42 41 32 31 28 22 26 31 32 33 34 32 31 29 26 24 22 20 19 16 14 11 10 11 12 13 12 13 13 11 10 9 7 10 11 13 13 12 11 11
16 18 30 27 33 23 24 25 18 22 30 31 32 31 30 28 25 23 21 19 18 16 14 11 9 10 11 12 10 10 11 14 9 9 8 6 8 8 10 11 11 11 11
23 29 34 35 33 31 23 24 30 27 29 29 28 26 26 24 22 20 17 16 14 13 11 10 9 10 9 10 10 10 12 8 7 7 5 8 6 5 7 9 10 9 10
30 32 31 32 26 27 21 37 33 30 31 29 27 27 24 23 18 18 17 14 13 11 9 7 8 7 8 7 9 9 7 8 7 6 3 4 3 4 6 6 7 9 10
26 27 29 29 28 31 41 38 37 34 28 29 29 27 25 21 19 18 17 15 12 9 8 6 5 4 5 6 8 8 9 7 5 5 5 4 2 3 5 4 8 9 7
27 30 31 31 36 38 45 39 34 28 35 28 31 29 25 20 19 17 15 14 13 11 6 3 1 2 5 7 8 9 8 6 5 4 5 1 2 6 1 1 6 8 10
25 30 28 30 37 35 34 29 32 31 32 28 30 26 23 20 19 18 17 15 13 9 6 4 1 3 5 7 8 8 8 7 7 4 4 3 3 8 3 3 6 7 8
24 29 37 35 31 27 21 23 25 23 23 28 26 25 22 19 17 17 16 14 10 10 8 4 2 3 3 6 7 7 6 7 6 5 3 2 0 2 5 7 7 9 9
28 30 29 24 21 18 18 20 19 23 25 22 23 22 20 18 16 16 16 14 13 11 6 5 5 5 5 4 4 6 7 7 4 2 3 2 2 3 8 11 13 14 15
27 25 26 22 20 16 15 17 17 21 25 21 22 22 20 18 19 18 17 17 13 13 10 8 6 5 3 1 2 2 5 5 5 5 2 2 3 3 9 10 13 15 18
25 26 22 22 20 17 18 19 20 22 23 18 18 20 22 21 20 20 18 16 16 15 11 11 10 6 3 2 2 3 6 4 5 3 3 3 6 5 5 12 13 14 16
24 22 22 22 20 21 20 21 19 23 23 21 22 20 22 21 20 18 20 17 18 17 15 13 12 8 5 5 4 5 5 5 6 6 5 6 7 7 8 8 9 11 19
26 25 25 24 21 18 19 21 20 21 22 22 22 25 23 21 22 21 20 18 19 19 18 15 13 9 7 8 5 6 7 6 7 8 9 8 9 9 9 9 9 10 12
27 28 26 24 23 23 20 21 21 23 22 21 24 26 24 25 24 22 19 20 21 19 19 18 14 10 8 9 4 6 6 7 6 10 11 11 11 10 10 11 11 12 13
27 27 27 25 23 23 21 19 19 18 19 23 22 27 27 27 24 20 21 22 23 22 19 19 16 13 7 7 6 3 7 10 13 10 12 10 12 10 11 12 14 14 13
27 26 27 26 25 25 25 21 22 21 20 19 21 28 28 27 24 24 23 26 25 23 19 21 18 14 12 9 8 10 11 10 8 10 9 10 10 11 13 15 14 14 13
26 26 26 26 26 25 25 26 24 23 18 18 22 27 27 27 26 26 27 27 27 27 25 24 23 19 18 12 7 6 9 11 11 12 14 11 13 15 15 14 14 14 13
27 27 29 28 27 26 27 29 30 24 22 23 25 26 27 28 25 26 30 29 28 28 29 27 28 25 23 15 15 16 11 11 12 12 14 15 17 16 15 14 13 12 14

GFSSE_850_spd_063.txt.gz
Wind_Speed
16 18 26 25 27 32 33 32 29 26 23 21 19 18 15 15 18 20 22 23 24 22 24 23 21 19 19 20 20 20 19 18 20 20 16 15 15 15 14 15 16 15 11
18 20 28 26 27 31 34 33 30 27 24 22 20 17 17 19 21 22 24 25 24 25 24 22 20 19 19 19 19 19 18 19 22 24 22 17 14 14 12 11 11 15 13
20 24 30 28 28 30 34 32 30 27 25 22 19 19 22 23 24 24 25 26 25 25 24 22 20 19 18 18 18 19 19 21 25 22 16 16 16 14 12 11 12 12 12
21 27 27 29 31 32 34 32 30 27 25 23 21 24 25 25 25 26 27 26 24 25 23 22 20 18 17 17 17 18 19 23 22 19 12 14 15 13 13 10 8 9 12
21 28 29 34 33 33 35 33 31 29 25 23 26 27 26 26 27 27 27 26 23 23 22 21 18 17 17 16 16 18 22 24 20 12 14 14 15 12 10 10 11 9 8
20 28 33 34 36 35 35 33 31 28 25 27 29 28 28 29 29 28 28 26 22 22 21 19 17 16 15 15 15 17 22 20 17 12 14 14 14 12 12 10 10 9 8
24 25 38 35 33 36 35 33 29 27 28 30 30 31 31 30 29 29 29 25 22 21 20 18 16 14 14 14 15 15 18 20 13 12 12 13 14 12 12 11 10 8 8
17 18 8 34 28 29 27 25 25 28 30 30 31 32 32 31 29 26 24 23 21 19 18 16 14 13 12 13 14 15 18 19 11 11 9 11 13 12 12 11 10 11 10
14 13 19 22 28 30 30 25 20 21 26 28 32 33 32 29 27 24 21 20 20 18 16 14 12 12 12 13 14 15 16 18 12 10 8 7 12 12 12 11 10 10 9
9 19 38 41 28 28 21 19 21 16 22 29 31 30 30 28 26 22 20 19 17 16 13 12 10 11 11 12 12 13 15 15 9 6 6 6 8 9 11 10 10 9 9
24 34 41 39 35 34 31 21 32 34 26 28 28 27 27 25 23 21 19 17 15 14 11 10 8 9 9 11 11 11 13 6 7 5 4 7 6 6 8 9 9 10 10
32 39 39 35 40 37 22 33 38 33 28 30 30 28 24 23 22 18 17 16 14 12 9 7 7 11 13 8 9 10 5 7 6 5 4 5 2 3 5 7 8 8 9
32 30 30 36 36 25 36 37 36 32 34 33 29 25 23 20 18 19 18 15 13 11 9 7 7 8 4 3 3 5 6 6 4 4 7 3 0 1 3 6 6 7 7
32 34 37 32 26 29 30 37 35 34 34 33 28 24 24 17 17 18 15 15 14 9 8 6 6 1 1 2 4 5 5 4 3 3 5 3 4 5 0 4 5 6 7
27 28 28 31 26 29 37 35 35 35 30 25 27 23 21 16 17 14 14 13 11 11 9 8 3 2 1 2 3 4 5 6 4 4 5 0 3 6 3 2 4 5 6
22 23 27 23 22 33 35 31 29 26 22 28 26 23 18 16 19 15 16 13 13 11 9 7 5 2 3 1 2 3 3 2 3 6 0 3 4 7 7 7 8 10 10
22 22 21 27 35 29 23 23 20 17 19 19 16 16 18 17 16 15 14 13 12 11 11 10 8 6 4 4 3 1 2 3 1 1 3 4 5 4 8 10 11 13 14
21 27 27 27 25 19 18 19 18 17 17 17 18 17 20 19 17 16 13 15 16 14 13 10 8 6 7 7 5 3 1 1 2 1 3 4 4 4 12 12 14 14 15
27 26 27 24 21 18 18 17 15 17 19 19 17 16 17 19 18 18 19 16 18 15 14 12 9 10 9 7 6 5 4 2 4 3 6 5 6 4 5 12 15 14 13
24 25 25 23 21 19 17 16 15 15 16 17 18 16 20 20 19 19 17 20 20 17 17 13 11 10 8 8 7 7 6 6 5 7 7 6 7 8 7 7 8 11 16
23 24 23 23 22 20 17 17 17 18 18 19 18 19 20 19 21 21 17 19 20 18 15 15 13 12 9 10 7 7 9 11 7 7 8 9 9 11 10 9 8 7 11
26 25 23 22 22 20 18 18 18 18 19 19 18 18 20 20 23 23 21 20 22 18 18 19 16 11 11 10 6 7 5 6 6 8 9 10 12 12 12 11 11 11 11
27 27 25 24 23 21 19 18 18 18 19 20 20 19 23 23 24 23 21 24 24 24 24 22 19 16 13 11 9 4 4 4 15 10 11 11 11 12 12 12 12 13 13
28 28 27 26 25 24 23 21 22 21 22 21 21 21 28 23 27 24 23 26 27 25 28 23 20 17 16 15 12 11 9 8 6 10 7 12 14 13 12 13 14 13 13
28 29 29 28 27 25 24 24 22 22 20 18 19 21 25 21 24 23 25 32 28 28 29 26 21 19 16 17 23 18 12 15 12 14 14 12 12 13 14 13 14 14 13
27 28 28 28 29 28 26 26 26 24 23 21 22 24 24 21 25 25 29 30 28 31 29 29 22 18 25 24 20 20 17 15 11 14 16 17 18 19 17 15 16 14 12

GFSSE_850_spd_066.txt.gz
Wind_Speed
12 21 28 33 34 34 32 31 29 26 24 22 20 17 15 15 19 21 24 24 23 24 25 24 21 21 21 21 22 22 23 27 27 21 17 18 17 15 14 15 14 14 13
10 17 24 27 32 33 33 31 28 27 24 22 19 17 16 20 23 25 25 24 24 25 24 22 21 21 21 21 23 25 28 29 26 26 17 16 19 18 17 16 19 18 18
32 12 21 26 28 31 32 31 28 26 24 21 19 17 20 23 25 26 25 25 25 24 23 22 21 21 21 22 23 28 27 23 24 25 14 15 17 17 14 14 20 18 18
30 17 20 24 26 30 32 30 28 26 24 22 19 21 24 26 27 28 25 26 25 24 22 21 20 21 21 21 24 27 26 27 22 18 8 12 15 15 14 13 12 13 14
21 23 25 26 27 30 32 31 29 27 25 22 22 25 26 28 29 27 25 25 25 24 22 21 19 20 20 21 26 27 24 18 10 6 9 13 15 14 12 12 11 11 11
18 21 19 27 31 35 36 33 30 28 25 23 26 27 28 29 30 28 26 25 24 23 21 19 18 18 18 20 24 24 22 22 14 8 14 14 15 13 13 12 12 12 11
17 23 19 25 34 35 38 37 34 30 27 27 28 28 29 30 30 27 26 25 23 22 20 18 17 17 17 18 21 22 24 23 8 6 14 15 14 12 12 12 12 11 11
15 21 20 24 21 33 41 41 37 32 31 30 29 27 30 31 31 27 25 24 22 20 19 18 16 15 16 17 19 20 20 20 8 8 9 14 13 13 13 12 12 12 12
18 18 12 5 24 27 36 33 29 34 32 31 30 30 29 30 29 25 24 23 21 18 17 16 16 14 14 16 18 19 21 17 10 10 7 13 13 13 13 13 12 13 13
14 16 17 15 25 21 12 27 23 22 28 30 31 32 30 28 25 23 22 21 19 16 15 15 14 13 13 15 17 18 18 16 7 2 4 10 11 12 13 13 12 13 13
16 20 21 25 21 15 24 19 25 21 21 28 29 28 29 26 23 22 21 20 17 15 13 12 11 13 13 13 13 12 11 14 3 6 8 10 8 9 12 12 12 13 13
12 18 27 32 20 20 24 21 26 34 33 28 29 30 29 26 22 20 19 17 15 13 11 11 12 13 12 9 9 6 10 11 3 5 7 7 5 5 9 9 10 10 10
18 29 33 32 22 27 27 23 34 35 30 30 29 29 26 22 19 18 18 16 15 12 10 9 8 9 9 7 4 5 11 7 3 5 7 5 2 4 6 7 9 9 9
22 24 25 28 31 24 26 34 40 34 30 32 30 25 24 20 19 17 16 16 14 11 8 6 5 4 6 2 3 6 6 4 7 4 4 3 1 2 2 5 9 9 10
26 25 29 36 25 24 34 39 40 31 32 32 28 24 27 22 16 17 16 14 12 8 7 8 5 4 3 2 3 5 5 6 10 6 6 3 3 4 2 5 5 5 8
21 23 29 23 26 30 35 33 34 30 34 29 26 25 21 17 15 13 13 12 11 12 11 9 5 2 2 1 1 2 1 1 6 3 6 3 3 5 6 6 8 9 9
23 23 30 25 27 29 27 30 27 27 28 26 22 22 21 17 18 19 19 13 16 12 8 8 10 6 7 2 4 0 3 3 1 10 6 9 7 6 6 8 8 10 12
21 27 20 23 31 31 27 27 27 31 21 19 17 22 22 20 15 17 17 19 15 14 17 16 12 9 7 5 4 1 4 4 5 3 7 4 6 5 8 11 10 12 12
18 22 33 40 39 35 32 33 24 23 23 22 19 20 23 22 20 22 16 19 20 20 17 13 11 8 10 10 8 7 9 5 9 2 8 11 14 8 6 9 11 13 10
32 35 38 31 23 25 27 25 24 20 25 22 23 19 18 21 23 20 23 23 20 20 17 19 13 13 13 9 9 10 10 9 9 10 14 11 10 15 14 10 13 11 10
29 31 31 28 27 26 30 25 22 22 23 22 19 20 22 20 22 23 23 21 21 20 21 18 17 17 16 16 19 14 12 16 16 12 15 14 12 14 15 14 19 8 11
33 28 31 32 30 28 22 24 23 23 20 24 25 20 24 24 22 25 22 21 23 19 22 20 21 20 18 20 17 9 11 16 17 12 10 15 16 17 15 15 15 17 17
36 37 36 30 30 29 27 21 22 23 21 23 26 25 27 30 29 24 22 24 25 22 24 25 26 23 20 22 22 15 9 9 11 4 15 12 15 18 16 19 18 19 16
34 34 33 33 31 30 29 28 27 26 27 26 26 26 28 28 25 26 24 21 26 27 24 28 30 29 26 25 25 22 20 13 8 8 9 9 17 23 24 19 18 18 22
34 35 32 32 31 30 26 27 26 26 24 24 24 25 24 25 22 23 23 22 24 28 29 31 33 30 26 27 26 27 20 15 13 13 18 15 12 19 18 17 17 20 21
33 34 34 32 32 30 30 29 27 28 27 24 24 23 27 27 23 22 21 26 20 32 33 33 33 28 28 25 28 26 22 16 17 12 18 20 18 19 18 17 19 22 24

GFSSE_850_spd_069.txt.gz
Wind_Speed
15 20 26 29 29 31 31 30 29 29 28 26 24 22 20 22 24 24 26 28 30 30 27 24 22 23 24 25 27 28 27 26 25 17 20 22 21 17 17 17 20 20 17
20 21 15 23 28 31 31 30 29 28 27 25 23 20 24 26 27 28 29 31 31 29 26 24 24 25 28 31 30 28 27 24 21 19 15 19 21 19 18 17 19 19 18
12 15 20 20 26 30 32 30 30 29 26 25 22 23 28 29 29 29 30 30 29 27 26 25 25 27 29 29 28 22 18 20 12 16 14 17 19 17 15 16 17 16 17
18 23 28 26 35 32 32 30 29 29 27 24 23 28 30 31 31 30 30 30 28 27 26 25 25 26 28 29 30 26 19 14 9 11 14 16 17 16 15 13 14 15 19
11 25 22 27 35 37 35 33 32 31 29 26 27 31 33 30 31 31 30 29 27 26 25 25 25 26 29 27 24 19 14 11 7 7 14 16 17 16 14 14 13 14 16
0 5 13 27 41 38 37 37 36 33 30 29 33 35 35 31 32 31 30 28 26 25 24 24 24 25 28 26 19 15 12 12 14 15 15 16 17 15 15 15 15 14 13
6 8 15 25 30 26 37 40 37 35 31 32 35 37 36 33 33 32 30 28 25 24 24 23 23 24 26 26 26 18 11 10 9 11 16 15 16 14 14 15 15 14 13
7 10 10 18 30 12 37 45 41 37 35 37 37 38 36 34 33 32 29 27 24 23 23 21 21 22 24 25 24 16 10 7 7 14 15 14 14 14 14 14 15 14 13
11 16 16 14 18 11 32 41 36 36 38 38 37 38 36 34 33 32 29 26 24 22 21 20 19 20 22 23 22 21 11 4 5 9 13 13 14 15 14 14 14 14 13
11 10 11 12 16 15 20 16 26 29 31 29 33 38 36 33 31 30 29 25 22 21 19 19 19 18 20 21 22 18 10 5 6 9 10 11 12 13 14 14 14 14 14
17 15 19 18 15 11 15 29 27 27 25 27 29 33 35 33 29 28 26 23 20 19 17 17 18 18 17 17 16 16 8 5 2 5 8 9 11 13 13 14 14 14 14
16 17 16 14 16 15 27 30 25 38 29 25 28 30 32 31 29 26 24 22 18 16 16 16 16 15 14 11 12 15 9 3 1 5 8 8 9 10 11 11 11 11 12
17 20 22 23 20 22 22 29 31 36 32 33 30 29 29 29 26 23 22 19 17 14 13 13 11 9 10 7 7 11 7 3 1 4 7 6 8 7 6 7 9 10 12
20 26 25 22 21 24 29 28 40 35 36 32 31 30 28 26 24 21 18 17 14 13 10 9 8 6 7 6 6 6 5 2 1 4 6 4 4 4 3 6 9 10 10
17 21 26 26 19 23 30 35 40 37 31 31 30 28 25 23 21 18 17 16 13 12 8 7 5 5 5 5 6 8 8 5 2 1 4 3 3 3 1 4 8 9 10
18 22 25 23 22 24 29 43 43 36 33 30 29 25 24 19 16 15 14 13 13 11 8 7 5 5 5 4 3 3 4 6 3 3 1 2 4 4 4 5 8 9 10
21 24 26 23 23 27 34 45 40 35 32 29 27 23 18 16 16 16 16 14 14 11 9 10 8 5 4 4 3 4 4 5 8 7 2 4 5 7 7 8 8 8 11
21 28 24 22 27 25 35 43 36 36 30 29 28 24 21 18 16 14 14 13 14 13 14 11 10 8 7 7 4 5 6 4 6 5 7 9 9 10 10 10 10 11 12
22 24 25 25 28 30 35 38 31 29 28 22 23 22 19 19 17 18 17 16 18 17 17 16 15 13 11 10 10 9 11 9 7 6 7 9 14 15 13 15 15 16 14
21 25 23 32 37 38 37 31 31 24 25 20 23 23 21 21 21 19 19 18 20 20 20 20 19 16 13 14 14 14 14 15 12 11 9 12 14 16 16 15 17 15 17
23 28 35 36 37 35 32 34 36 31 24 24 24 24 22 22 25 23 22 23 22 21 21 22 20 19 19 20 16 16 16 16 17 16 13 13 14 16 17 17 18 16 20
35 40 34 34 34 34 40 31 26 28 27 26 26 26 24 22 21 23 24 24 25 24 23 23 24 25 24 25 24 22 20 21 25 24 19 16 16 17 20 21 18 20 23
35 35 33 32 31 33 33 29 31 27 25 27 30 27 24 24 25 23 21 25 27 25 22 24 26 27 30 28 27 21 12 14 19 25 20 16 17 20 21 23 23 23 22
36 33 32 32 31 33 32 33 33 32 30 29 30 29 27 28 28 29 29 29 31 28 25 24 25 27 30 28 26 26 24 13 12 11 12 11 22 22 23 24 23 23 25
35 35 34 35 37 37 34 30 30 30 30 27 28 28 31 32 32 30 30 32 31 31 28 24 21 28 34 30 31 31 29 25 19 13 13 17 14 18 20 22 21 22 26
36 35 34 39 36 33 33 38 35 32 32 34 31 33 34 35 34 33 30 29 29 29 26 25 24 28 35 33 30 23 30 24 23 20 17 22 24 22 15 15 19 20 28

GFSSE_850_spd_072.txt.gz
Wind_Speed
15 27 30 29 33 25 31 29 31 30 27 26 23 22 22 23 24 26 27 28 30 28 27 27 26 24 23 24 24 24 24 22 19 22 24 23 22 20 19 19 21 21 20
19 24 30 31 33 31 27 27 28 28 27 26 25 23 24 27 28 29 30 32 31 30 28 27 26 26 26 25 22 22 23 22 18 17 19 22 22 20 20 21 21 23 22
21 22 26 31 33 29 21 27 30 30 29 26 25 27 29 30 31 33 33 32 30 29 28 27 28 27 25 23 20 17 23 22 18 16 17 19 20 20 19 18 23 21 22
15 18 28 33 34 29 15 25 32 32 30 28 27 32 34 34 34 35 33 31 30 29 29 29 29 26 22 20 19 17 17 15 15 14 16 17 18 18 17 17 20 21 20
16 16 23 29 25 22 22 38 36 36 32 29 33 34 35 36 37 36 34 31 29 30 30 30 29 27 21 20 18 17 16 15 12 13 15 15 17 17 17 17 19 20 19
9 20 36 29 31 22 20 39 38 40 36 35 35 34 36 36 37 35 34 31 30 30 30 31 30 25 18 17 17 16 16 15 15 15 16 17 17 17 16 15 15 14 15
6 6 17 27 28 23 8 39 45 44 38 39 36 35 36 37 37 35 32 30 29 29 30 32 31 23 17 17 17 15 13 14 14 15 16 16 17 16 16 16 16 16 15
12 9 15 31 30 15 21 14 47 41 42 41 40 38 38 38 37 35 32 30 29 28 29 30 29 24 17 17 16 12 13 14 14 16 14 15 15 16 16 15 15 16 16
10 15 17 25 13 4 7 7 47 37 44 44 39 38 39 39 37 34 31 28 27 27 27 27 28 26 20 14 12 11 11 11 12 15 14 15 15 15 15 14 15 14 15
9 12 12 11 10 9 7 3 28 35 31 40 39 38 37 36 35 33 30 28 25 25 25 25 25 25 21 15 11 9 9 9 10 13 13 13 13 13 13 13 14 14 14
10 11 14 16 15 21 19 29 24 32 28 33 37 36 36 36 34 30 28 26 24 23 23 23 23 22 21 14 10 8 7 8 9 10 10 10 10 12 13 13 13 13 14
8 10 13 14 11 13 17 29 39 41 39 29 31 34 34 34 32 30 27 25 23 21 21 21 21 20 19 13 9 6 4 5 6 8 8 9 9 10 10 10 11 11 11
8 11 13 15 16 22 36 37 41 43 40 32 32 29 29 31 31 29 27 24 21 19 19 16 15 15 15 11 9 7 4 4 5 7 7 7 7 7 7 8 8 8 9
10 13 20 19 23 27 34 40 40 42 43 39 39 35 30 32 31 27 25 22 20 18 16 14 12 12 11 10 8 7 5 3 3 4 6 5 5 5 5 4 4 6 9
11 18 22 20 25 28 32 34 42 43 37 38 39 34 32 32 29 26 24 22 18 16 12 11 10 9 9 8 8 7 5 3 2 3 3 4 4 4 4 5 8 9 11
15 22 23 24 26 28 28 38 45 38 37 37 35 34 32 28 26 25 21 19 16 13 12 10 8 7 8 8 8 7 4 4 2 2 1 2 3 4 4 3 4 6 8
12 17 24 26 27 30 35 41 41 38 38 35 35 32 28 26 22 19 18 18 16 13 12 10 8 8 8 7 7 7 5 5 4 6 3 4 4 4 5 6 8 10 11
16 19 24 28 29 32 36 42 42 38 36 35 33 29 25 22 21 19 17 15 16 15 11 10 9 8 7 6 7 7 7 6 5 8 7 6 7 7 8 9 11 13 13
19 24 25 24 28 33 41 43 39 39 34 35 32 28 27 23 18 16 16 15 15 15 13 11 11 9 8 8 9 10 8 8 8 10 10 8 9 11 12 15 15 15 16
17 25 22 21 29 35 42 40 38 37 33 32 30 26 23 20 18 19 18 16 17 18 17 15 14 13 13 13 12 13 13 13 13 13 13 12 12 13 16 16 16 16 17
22 27 25 27 29 37 44 38 39 40 35 29 26 25 25 23 21 21 18 19 20 21 19 17 18 19 19 18 16 18 19 20 19 18 17 17 16 16 17 15 17 17 19
25 29 29 30 33 41 46 44 42 36 32 28 25 27 27 26 25 24 24 25 23 22 22 22 22 23 22 22 24 23 17 23 26 25 23 22 20 19 21 19 19 20 21
28 33 31 36 39 44 45 40 38 31 27 30 29 31 31 29 26 25 26 27 25 25 25 24 24 25 25 24 26 22 11 15 21 27 27 25 23 22 22 22 24 26 26
34 36 37 41 41 45 42 43 40 40 38 36 34 30 32 31 28 27 26 25 25 26 27 27 26 24 26 27 28 33 33 24 12 6 20 25 24 25 22 24 27 29 29
36 39 40 40 39 40 41 41 38 39 36 33 31 31 33 31 30 29 30 28 28 27 29 29 28 26 25 29 31 35 37 34 30 17 12 17 19 17 25 26 27 30 30
37 37 39 40 40 40 41 41 38 38 39 37 34 33 34 34 35 33 32 31 30 30 31 30 31 27 25 28 32 37 39 37 35 31 27 25 29 24 22 21 24 25 28

GFSSE_850_spd_075.txt.gz
Wind_Speed
15 25 26 25 27 31 32 34 32 27 26 26 29 30 31 28 26 26 28 29 28 27 24 22 22 20 20 21 22 22 22 22 24 23 24 23 24 23 23 22 22 22 23
14 27 31 27 33 34 32 30 31 27 27 27 27 26 26 26 26 28 31 31 29 28 26 24 21 21 22 23 24 23 20 18 19 23 23 23 24 23 25 24 23 23 23
15 20 25 28 28 31 32 28 24 27 24 24 24 24 24 27 29 32 33 32 30 28 26 23 24 23 21 22 25 23 21 18 17 19 21 24 23 23 24 22 22 21 22
13 19 23 21 20 25 29 28 29 24 22 25 25 25 26 28 32 34 35 33 29 27 26 25 22 22 21 22 21 19 19 19 18 18 19 22 22 22 22 22 21 21 21
15 18 21 19 13 15 14 16 26 30 23 28 28 27 30 32 34 35 33 31 29 28 27 25 23 24 23 22 21 20 19 18 16 17 18 19 21 22 22 22 21 21 20
21 23 18 22 24 31 15 21 25 27 29 27 31 33 34 36 33 33 32 31 30 30 27 25 24 23 22 22 20 20 20 18 16 17 18 19 21 20 19 18 18 18 18
22 23 22 29 40 32 22 15 19 31 39 34 34 34 36 37 35 33 33 33 32 31 28 23 22 21 21 19 18 18 20 18 17 17 18 19 21 19 18 17 17 17 17
16 15 20 31 34 22 19 23 17 32 41 38 35 37 40 38 35 33 33 32 32 33 28 22 20 20 20 17 17 18 18 17 17 17 17 19 18 17 17 17 17 17 17
12 12 15 20 20 11 25 35 36 34 45 42 39 41 40 38 35 32 32 33 33 33 29 22 20 20 18 15 15 14 15 16 16 17 17 18 17 16 17 17 16 16 16
10 9 13 21 27 23 7 9 21 48 47 43 40 40 35 33 32 32 32 32 33 31 28 23 19 18 17 14 12 11 14 14 15 15 16 17 16 15 15 15 15 15 14
8 12 25 28 30 19 19 10 24 40 42 41 38 41 41 39 34 32 31 31 32 30 27 23 17 14 13 10 10 10 11 12 13 13 13 13 13 13 13 13 13 13 14
11 11 14 18 18 20 14 11 34 43 37 36 37 41 40 37 33 30 29 29 30 29 27 23 18 14 11 10 10 8 8 10 10 11 11 11 11 12 12 12 11 12 13
10 13 15 15 16 17 19 33 44 44 41 39 37 40 39 36 34 32 30 28 27 25 24 23 19 15 12 8 9 7 7 8 8 9 9 9 9 9 9 8 9 9 9
9 14 16 15 16 20 25 36 33 44 44 40 40 39 39 35 32 29 27 26 24 23 22 20 18 17 13 11 7 7 7 6 6 7 7 7 6 6 5 6 6 7 9
12 18 19 19 23 26 29 34 42 45 42 38 36 36 36 31 26 25 25 24 23 21 18 18 16 13 11 10 8 6 5 4 4 5 6 5 5 5 5 4 4 7 8
11 21 21 21 27 28 34 38 46 48 43 42 41 33 32 32 33 30 26 23 20 19 17 13 11 10 9 7 7 6 4 4 3 3 3 4 4 4 5 7 7 8 8
15 18 20 24 28 30 34 38 45 50 45 42 44 41 36 34 31 28 24 23 20 17 15 12 11 10 10 8 7 6 5 5 3 4 1 1 3 3 4 5 6 7 9
14 19 23 26 29 35 35 41 44 42 41 45 45 37 33 32 28 23 22 21 18 15 13 11 10 11 10 10 9 8 8 6 5 6 7 4 5 6 6 6 8 9 10
13 16 22 28 33 37 39 44 38 38 40 42 39 34 33 31 25 24 22 18 17 16 13 12 12 10 10 9 10 10 9 8 8 8 9 9 9 8 8 8 9 11 11
15 17 20 28 31 35 41 41 37 36 36 35 35 33 30 28 27 23 19 17 17 16 15 13 12 11 11 9 10 12 13 12 12 12 12 12 13 12 9 10 11 12 12
18 20 23 24 22 33 41 42 38 37 34 35 34 30 29 26 22 22 20 18 15 16 15 14 14 16 15 13 14 16 18 18 19 18 18 18 17 15 13 13 14 14 14
20 24 29 25 26 32 39 43 38 38 33 34 33 30 27 24 24 20 19 17 18 17 17 18 18 18 17 17 20 20 18 23 26 25 25 24 21 18 17 17 17 19 18
24 25 28 24 25 30 40 41 38 36 34 32 30 28 27 24 21 21 19 19 22 21 21 21 21 21 21 22 26 23 11 18 19 22 27 29 27 24 21 21 22 22 21
23 25 26 25 26 31 43 43 40 42 36 36 30 26 24 24 24 24 23 25 25 25 27 26 24 25 26 27 28 30 31 28 18 15 21 24 29 27 24 24 24 26 25
23 26 27 27 30 33 42 44 42 41 38 37 34 30 27 29 31 30 31 29 28 27 27 26 28 28 30 31 32 31 32 33 36 34 26 24 21 26 25 22 25 27 27
25 27 29 32 34 36 46 47 46 44 41 39 37 36 35 33 34 35 36 33 30 31 31 31 29 30 31 32 33 31 30 31 32 34 34 27 29 25 24 29 25 25 25

GFSSE_850_spd_078.txt.gz
Wind_Speed
25 21 24 24 26 26 26 28 33 35 26 31 34 33 29 26 24 24 26 27 27 25 23 20 19 18 19 23 21 20 21 23 22 24 24 24 24 24 20 22 24 21 23
17 12 20 23 22 24 27 28 30 29 30 34 31 34 30 27 25 27 28 28 26 24 22 21 19 19 20 21 22 22 22 24 25 25 25 26 27 23 25 24 22 21 19
11 17 22 22 22 25 25 23 27 30 30 33 36 34 31 27 27 29 29 28 26 23 23 21 21 22 23 23 23 21 20 20 21 23 26 28 25 23 24 22 21 22 21
11 20 25 25 25 25 21 19 20 30 32 36 35 33 31 27 29 31 29 28 26 24 22 24 24 24 25 22 22 22 21 20 19 20 25 27 24 22 23 24 21 24 24
16 21 25 30 32 31 17 7 14 25 34 35 33 33 31 28 29 31 29 28 26 24 28 26 26 24 22 20 22 22 21 20 20 20 23 24 26 24 22 23 22 21 21
17 24 28 29 31 31 26 20 13 18 22 29 31 29 27 28 31 32 31 28 26 25 25 25 26 24 23 22 23 22 21 19 19 20 21 22 22 22 22 22 21 21 22
19 23 22 32 32 25 25 30 29 30 28 27 25 20 27 30 34 34 32 26 26 25 27 26 26 25 23 21 23 23 20 19 19 20 21 21 22 22 21 21 21 20 21
18 19 20 21 29 23 23 25 28 34 33 31 28 26 32 35 36 34 32 28 26 26 26 25 24 23 22 22 22 22 19 18 19 20 21 21 21 22 21 20 20 20 20
14 16 20 25 27 26 28 22 24 30 35 35 34 31 37 38 36 34 33 29 27 25 24 24 23 22 21 20 19 19 19 18 19 20 21 21 20 20 20 19 19 19 18
8 10 17 30 33 33 26 24 30 34 33 41 42 37 39 40 37 34 30 30 28 25 23 24 23 20 19 17 16 17 18 17 17 18 18 19 18 18 17 17 17 16 16
7 13 14 14 29 30 27 22 13 33 39 34 37 41 42 39 36 32 32 32 27 24 22 23 22 19 18 16 16 16 16 16 15 16 16 17 16 15 15 15 15 15 15
10 14 17 16 25 26 19 15 9 29 33 43 40 42 42 38 35 33 32 31 28 23 21 21 19 17 15 14 14 14 14 14 13 14 15 14 14 13 12 13 15 15 14
11 13 16 22 25 22 18 14 21 34 51 47 42 41 41 39 36 31 34 33 28 23 21 20 18 15 12 10 12 13 12 12 12 12 14 12 11 10 10 11 11 11 12
13 13 14 17 19 18 18 26 39 41 50 50 46 39 41 39 37 34 33 29 27 24 20 18 17 16 13 13 11 10 10 10 11 11 11 10 9 8 7 8 8 8 10
13 12 14 14 15 16 25 37 40 37 43 44 46 38 38 36 34 33 30 28 26 23 19 17 15 13 12 13 11 8 8 9 9 9 8 8 7 7 6 5 5 7 9
12 12 16 16 16 24 33 38 38 36 37 40 41 41 39 35 32 28 27 26 24 22 19 15 15 15 12 11 10 8 6 7 6 6 6 6 5 5 5 6 7 8 9
11 12 15 15 17 25 35 38 37 36 44 43 40 40 35 31 26 23 22 21 21 20 18 18 17 14 11 10 8 8 6 6 4 4 3 3 2 1 2 4 4 5 7
14 13 15 17 21 24 29 34 37 41 45 43 38 37 34 31 29 23 27 26 23 19 18 16 13 11 10 9 8 7 6 5 4 4 6 3 3 3 4 4 4 6 6
13 16 20 21 25 26 29 37 41 39 38 41 38 35 32 29 28 29 27 24 21 19 18 13 12 8 8 8 8 7 7 6 6 7 8 8 8 7 7 7 7 7 7
12 13 16 21 26 29 32 38 41 38 32 41 37 36 34 29 28 26 23 21 21 20 16 13 11 11 10 7 7 8 9 11 11 11 12 12 12 12 11 11 10 10 10
14 15 16 21 26 32 30 34 34 41 35 34 38 42 31 30 28 24 22 22 22 18 14 14 14 14 11 11 11 12 14 15 16 17 17 17 18 15 16 16 14 13 12
17 18 17 18 24 32 31 34 30 35 34 37 40 35 29 28 27 25 24 24 20 16 16 18 16 14 13 15 15 14 15 19 23 24 24 23 23 22 22 20 18 17 16
20 21 20 20 22 27 32 39 36 33 30 37 36 35 30 28 26 24 25 22 20 19 18 18 17 17 17 18 19 17 8 11 18 18 22 24 27 29 28 26 22 21 20
19 22 23 26 23 26 36 40 40 39 35 36 35 33 36 28 27 25 24 23 22 21 20 22 20 21 20 22 24 26 27 27 21 12 19 19 21 27 31 30 28 26 23
18 24 24 26 25 27 33 39 42 39 38 39 36 34 38 30 30 28 26 25 24 24 23 24 24 24 26 27 29 31 30 32 33 32 31 26 30 30 24 27 28 28 24
19 22 24 26 26 28 32 37 43 42 42 41 41 37 35 34 32 30 27 27 28 28 26 27 27 28 29 30 32 33 33 30 28 29 30 28 32 32 23 23 26 22 24

GFSSE_850_spd_081.txt.gz
Wind_Speed
20 27 29 31 29 25 21 24 28 28 30 31 30 29 28 25 23 22 23 23 23 23 25 21 19 21 23 23 21 22 22 23 25 26 21 21 22 23 23 22 21 23 23
23 26 29 25 23 25 26 24 24 28 30 30 31 30 28 27 26 27 27 26 25 26 22 20 18 21 23 21 23 23 24 24 24 28 24 24 22 20 20 20 20 19 18
21 20 25 21 22 24 24 22 26 30 31 32 32 31 29 28 29 29 27 26 23 22 20 19 21 23 22 21 20 21 23 24 25 31 28 25 23 21 21 20 19 17 17
13 23 20 24 24 24 26 27 27 29 29 35 35 33 30 28 28 30 27 26 22 21 21 21 22 21 20 20 18 19 20 20 25 29 23 22 21 19 19 22 21 21 21
13 20 22 25 27 28 30 28 24 25 26 38 36 35 30 30 31 30 27 26 22 21 21 23 24 23 21 20 20 20 21 21 24 23 21 22 21 21 21 20 20 22 22
11 22 23 25 25 28 29 26 24 18 19 34 37 34 30 29 30 29 28 27 23 21 23 22 23 21 21 21 21 20 20 21 23 21 21 21 19 19 21 21 22 22 22
12 22 26 25 27 30 35 24 23 20 13 28 32 31 30 31 32 31 29 28 27 26 25 23 23 23 24 22 22 21 21 20 20 20 21 20 21 21 22 22 22 21 21
14 22 24 26 32 35 34 25 19 22 28 31 28 27 30 32 34 33 30 29 26 25 26 25 23 23 24 23 22 21 21 20 21 22 21 21 21 22 21 20 20 20 21
12 14 21 23 31 36 39 30 28 27 30 27 33 36 34 35 35 34 31 27 26 27 27 26 23 23 22 22 22 21 20 20 21 22 21 20 21 21 20 20 19 19 20
8 11 15 21 27 28 40 29 25 27 28 31 42 39 40 39 37 35 29 27 28 27 26 26 24 23 21 21 21 21 21 20 21 21 20 18 20 20 19 18 18 18 17
7 7 10 18 25 23 29 28 22 20 26 37 40 44 42 43 39 33 30 30 28 26 26 25 23 22 21 20 20 20 20 18 19 19 18 19 18 18 17 17 16 16 15
7 7 11 11 23 26 31 31 24 20 31 40 43 51 44 41 39 33 31 29 27 26 26 25 22 21 20 20 19 17 17 17 17 18 17 16 16 16 15 14 13 13 13
10 11 13 15 17 23 26 26 28 29 32 42 37 43 40 38 35 35 34 29 28 27 27 24 22 19 18 17 18 16 15 16 16 16 16 14 13 12 12 11 10 11 12
11 13 14 18 18 23 28 21 24 20 35 47 40 42 40 40 38 37 35 31 29 27 26 23 20 18 16 16 14 15 14 15 15 15 14 12 11 10 9 9 8 9 10
12 12 12 12 14 15 16 16 18 35 40 44 44 44 43 41 40 38 33 29 25 24 21 21 19 18 15 15 14 12 13 13 14 13 13 11 9 8 8 8 8 8 8
12 13 11 12 12 14 14 20 27 36 53 46 42 41 40 39 38 35 31 26 25 21 19 17 17 16 15 13 13 12 11 10 10 11 10 10 8 8 7 7 6 6 5
12 11 12 12 12 12 17 20 30 33 44 44 38 39 39 36 34 32 29 24 20 21 17 15 13 13 15 14 12 11 10 9 8 8 8 8 6 4 2 3 4 6 5
11 13 14 14 13 17 23 26 35 39 41 41 39 36 37 33 27 29 27 23 24 21 16 15 14 15 15 13 13 11 10 9 8 8 8 6 5 4 3 2 1 2 2
13 15 17 16 16 21 29 28 30 38 42 43 41 35 32 33 31 29 29 31 23 19 17 16 17 18 16 13 12 11 9 9 8 8 8 8 7 6 5 6 7 6 5
13 15 18 18 18 20 32 30 28 38 45 42 40 41 39 35 34 31 31 20 18 20 21 19 19 15 13 10 9 9 10 11 11 11 11 12 12 11 10 10 11 11 9
14 16 17 21 21 23 26 31 30 39 49 37 40 38 32 30 27 27 21 22 24 23 20 20 18 17 16 15 12 12 12 13 15 16 14 15 16 15 14 15 15 15 13
18 17 19 19 22 25 27 30 34 34 44 38 39 32 28 27 25 23 25 28 27 24 22 22 20 18 18 17 16 14 9 16 20 20 19 21 20 18 19 18 20 19 17
20 21 21 20 24 27 30 31 35 37 40 40 44 42 38 27 26 27 28 27 25 24 24 22 20 20 20 18 19 15 6 9 9 11 12 12 13 20 22 24 23 26 23
20 24 23 23 21 25 32 32 30 43 36 46 47 46 49 35 30 31 30 28 26 24 25 22 20 21 20 21 21 23 24 24 13 9 15 14 14 17 17 20 26 28 30
21 24 25 25 24 25 31 33 38 37 42 41 44 48 50 36 32 32 31 29 27 26 24 23 22 22 22 24 25 27 27 28 28 28 23 24 26 21 22 21 20 25 27
21 24 27 29 28 27 29 33 40 40 41 43 47 49 43 39 35 33 32 30 29 28 26 24 23 24 24 26 28 30 31 28 27 28 30 33 27 24 23 19 18 18 22

GFSSE_850_spd_084.txt.gz
Wind_Speed
8 13 26 25 24 22 24 28 29 28 28 28 28 28 27 25 26 21 21 23 21 19 18 19 20 20 20 20 21 17 16 18 21 21 22 23 22 23 22 23 23 23 24
14 13 26 28 26 21 21 25 30 29 30 30 29 29 28 26 26 22 25 23 23 23 21 19 20 21 22 20 20 20 21 20 18 19 21 22 20 20 18 17 19 20 20
14 13 25 28 27 25 23 23 29 31 32 31 31 31 29 26 26 24 25 25 25 22 22 20 20 22 21 23 22 23 23 24 26 25 23 20 19 17 16 16 16 16 14
14 19 20 29 29 27 26 27 28 31 31 31 32 32 30 28 28 26 26 26 24 25 21 21 22 20 21 21 22 24 25 28 28 23 21 20 19 17 14 13 14 14 14
10 20 21 22 27 25 26 25 26 28 32 32 31 32 30 31 29 26 25 25 23 22 21 23 21 20 20 20 22 23 24 28 26 18 16 17 18 18 18 18 19 20 19
12 15 20 22 23 25 22 22 18 19 24 20 19 23 33 33 29 28 24 24 21 21 24 23 22 20 20 20 21 23 25 24 21 18 17 19 18 19 19 19 18 19 19
14 14 18 19 21 25 24 32 32 34 26 25 16 33 37 35 30 23 26 26 22 22 23 24 21 21 20 20 21 22 25 26 17 18 18 17 19 20 20 19 19 19 19
14 16 18 19 20 23 26 23 25 27 25 20 23 41 38 34 33 32 31 26 25 23 25 23 23 22 21 21 21 22 23 23 19 19 18 18 21 21 20 19 20 20 19
14 15 18 22 22 22 26 27 21 17 18 15 8 34 34 31 32 33 32 30 28 24 25 24 23 22 22 22 21 22 23 24 19 19 18 18 21 20 20 20 20 19 19
10 12 17 26 25 24 30 35 22 17 16 19 21 26 27 26 33 35 34 31 27 27 27 25 24 22 22 22 22 22 20 25 18 18 17 18 21 20 19 19 19 17 17
9 10 15 22 26 28 34 35 34 24 25 27 29 32 32 32 35 35 34 29 30 29 27 26 23 22 22 22 23 22 20 16 17 15 16 20 20 19 18 17 16 15 14
8 9 10 21 15 26 34 30 33 29 28 29 34 35 39 37 40 34 32 32 31 29 26 25 23 23 22 22 22 20 14 15 14 15 16 19 18 17 16 15 14 13 12
11 9 9 16 15 24 26 26 27 32 24 25 30 50 50 45 43 34 35 34 32 29 28 25 24 20 17 17 19 12 15 14 13 13 17 17 16 14 13 12 12 11 11
10 12 12 13 19 19 22 23 27 28 26 25 28 33 54 50 46 38 32 35 34 31 29 26 21 17 17 15 14 14 14 12 12 12 15 14 13 12 11 10 9 9 9
9 13 12 13 16 18 21 21 25 26 25 26 27 47 55 46 41 40 38 36 35 30 27 22 18 17 18 16 14 14 13 13 14 12 13 12 11 9 9 8 8 7 8
9 13 12 12 12 13 14 18 24 17 23 28 48 47 48 45 39 40 39 37 33 31 23 21 21 18 16 14 14 13 12 13 13 13 12 12 11 10 9 8 6 5 5
13 14 14 12 12 11 12 15 19 24 39 51 45 43 41 37 39 40 38 35 30 27 25 22 20 18 15 14 13 13 11 11 11 13 12 11 10 9 7 5 5 4 3
13 16 13 13 11 10 12 13 20 30 44 44 44 41 41 42 41 39 35 30 27 25 23 21 21 16 15 13 13 11 11 11 11 12 11 11 11 11 8 6 4 3 1
13 14 14 13 12 12 15 16 29 37 38 39 39 41 43 39 35 32 29 25 23 23 20 20 17 15 15 13 12 11 11 11 11 12 12 13 12 12 10 11 8 8 6
13 15 14 14 12 16 18 24 32 40 45 45 37 35 34 33 31 28 28 27 28 24 22 21 18 16 15 13 11 10 10 11 12 13 14 14 13 14 13 12 13 14 13
14 16 17 16 15 19 21 30 34 45 47 42 39 37 38 37 41 40 37 30 26 24 22 18 15 15 18 14 10 9 12 14 16 14 14 14 15 15 15 15 16 14 18
15 18 17 18 19 21 25 26 35 40 48 44 45 40 36 36 38 33 31 32 27 23 22 21 20 19 16 17 11 8 8 11 18 20 17 17 17 16 18 19 19 19 19
17 20 22 19 21 25 25 29 27 39 43 41 43 38 44 33 34 36 32 27 23 24 27 23 21 20 15 16 18 11 8 11 8 11 17 18 18 16 15 20 22 24 24
20 20 23 23 23 26 26 31 32 43 50 45 45 47 43 36 34 33 32 27 31 31 28 24 22 21 18 16 17 22 22 13 12 9 10 16 20 18 16 20 22 23 24
20 22 25 24 24 27 30 30 33 39 50 45 43 46 44 35 30 31 31 29 28 29 27 22 23 24 22 19 18 15 18 20 19 20 21 15 18 25 23 21 20 23 24
22 23 26 27 27 28 31 33 33 41 43 44 46 47 51 43 31 29 26 30 29 28 26 26 25 24 24 23 21 20 21 17 18 19 21 24 25 16 20 21 25 24 22

GFSSE_850_spd_087.txt.gz
Wind_Speed
1 10 11 21 19 20 20 23 23 23 23 24 24 23 22 22 21 20 18 17 15 17 19 18 18 17 18 20 21 20 18 20 20 21 20 21 23 25 24 24 25 25 24
3 7 13 23 22 20 21 22 24 25 25 25 25 25 24 23 21 20 18 18 18 18 21 20 18 17 16 18 17 18 20 21 19 19 19 19 20 22 21 19 19 21 20
5 7 15 23 23 20 18 20 25 26 26 27 27 26 25 24 22 21 21 20 21 21 20 17 16 17 19 18 18 19 19 18 19 20 18 17 16 16 13 13 17 16 15
8 10 10 20 25 21 17 18 22 27 28 29 30 29 27 26 24 23 23 24 24 20 18 17 16 19 21 22 21 21 26 26 24 19 16 16 15 14 14 14 13 12 10
8 9 12 16 22 22 21 19 19 23 28 31 33 32 29 27 25 25 26 24 21 20 17 16 17 20 21 21 22 25 26 23 20 18 15 16 15 15 13 13 14 14 13
5 10 16 14 18 24 23 21 23 19 22 29 32 32 30 28 28 28 27 24 22 19 17 17 18 21 20 22 25 27 26 24 19 14 15 16 17 18 19 19 17 16 15
11 16 13 17 21 22 20 22 27 28 36 30 3 15 24 26 29 31 28 23 18 21 21 20 20 21 20 22 25 30 27 21 16 15 14 15 17 18 17 17 16 16 16
13 17 16 17 19 19 19 22 23 23 27 24 35 25 20 21 29 32 25 20 20 20 20 21 22 21 21 23 26 27 26 21 16 16 15 15 20 19 18 19 18 18 18
14 17 18 17 18 17 20 21 21 28 27 29 30 24 27 38 39 29 21 19 21 20 23 22 22 22 22 23 27 27 27 21 15 15 15 16 19 18 20 20 19 19 19
13 15 16 15 19 18 19 20 19 17 18 21 26 24 10 41 33 32 23 20 24 24 23 24 23 23 22 22 25 25 27 22 15 16 14 16 19 18 19 19 19 19 18
11 13 15 16 21 24 20 21 21 23 18 14 21 12 20 35 40 35 31 31 26 25 25 25 24 24 24 24 24 26 20 14 15 13 14 18 18 18 18 18 17 16 15
8 9 14 15 20 24 23 23 25 25 18 20 19 13 13 29 33 31 30 29 26 27 26 25 24 24 25 27 27 21 16 14 12 11 15 18 17 17 16 16 15 14 13
11 9 11 10 19 17 21 26 21 21 26 26 26 21 21 34 28 29 31 29 31 29 29 26 26 24 21 23 20 10 15 13 12 12 17 17 17 15 14 14 13 12 12
11 9 10 11 14 16 18 24 22 19 19 22 24 22 23 34 35 34 34 34 36 31 30 28 24 19 18 18 13 14 14 13 12 13 17 16 15 14 12 11 11 10 10
10 11 10 11 11 13 17 17 19 25 19 22 23 25 26 48 44 36 37 32 33 31 29 26 19 19 17 16 13 14 14 14 14 13 15 15 13 13 11 10 9 8 8
9 10 11 12 13 13 17 18 18 20 19 22 22 22 34 50 46 39 37 31 28 27 25 22 20 18 17 15 15 14 13 14 13 13 13 14 12 11 11 9 8 7 6
10 12 11 12 11 10 11 13 15 18 22 21 20 41 58 54 46 43 34 32 29 27 26 22 22 18 16 15 14 14 13 14 13 13 13 13 13 12 10 9 7 6 5
11 11 12 12 10 9 12 12 12 14 20 30 33 45 52 55 49 46 34 32 28 28 27 23 22 20 16 15 14 13 12 13 13 13 12 11 12 11 10 10 8 7 6
11 12 13 11 10 8 8 7 12 19 33 43 50 54 54 49 48 39 35 34 32 29 27 26 22 19 16 15 14 13 12 12 12 12 13 13 13 12 11 9 8 10 10
12 13 15 12 10 9 10 16 21 32 33 39 43 43 43 41 40 36 37 31 26 24 23 22 21 18 18 15 12 12 12 11 11 12 14 14 14 15 15 16 16 17 15
13 14 15 14 13 14 15 26 30 38 44 43 40 39 42 40 36 36 32 28 33 27 26 26 21 21 17 15 14 11 10 11 13 13 14 15 15 15 17 17 17 14 16
15 15 17 16 16 18 18 32 40 46 46 43 42 41 35 41 40 38 30 28 31 27 24 21 20 17 14 17 14 11 9 9 14 17 16 16 18 16 17 19 21 23 23
18 17 19 20 21 22 22 29 35 42 41 39 35 33 32 39 37 35 31 32 31 25 25 20 19 18 16 16 15 7 7 8 9 13 17 18 17 19 19 20 23 23 24
19 18 19 22 22 24 28 32 37 44 48 45 42 39 44 41 37 37 32 32 29 21 22 20 17 16 13 12 12 19 14 8 4 5 10 15 18 21 23 21 19 21 22
21 21 20 24 23 26 27 31 37 43 46 47 43 42 43 46 41 36 28 26 27 28 21 21 18 20 15 14 12 10 11 13 15 15 17 15 17 19 22 23 25 27 25
22 21 23 26 27 28 30 30 33 36 46 45 43 44 48 44 35 34 28 30 25 23 21 24 22 20 21 17 19 16 16 15 13 17 18 20 22 24 24 22 21 25 26

GFSSE_850_spd_090.txt.gz
Wind_Speed
1 9 5 9 14 15 16 17 16 16 17 17 18 17 16 17 18 18 18 17 15 14 15 20 23 22 20 19 17 15 15 17 22 23 24 24 24 24 25 24 25 25 23
4 8 6 8 16 15 16 17 17 17 17 18 19 18 17 18 18 18 16 15 15 18 22 22 21 20 21 20 18 16 16 19 20 21 22 23 22 23 22 22 23 22 21
6 7 10 7 17 16 15 15 17 18 19 19 19 19 19 19 19 17 15 16 18 21 23 22 20 20 21 20 19 18 18 18 17 18 18 20 19 17 16 17 17 16 15
6 5 9 6 13 18 14 14 15 18 20 22 22 22 22 21 21 18 17 18 19 21 21 18 18 20 20 19 20 20 20 18 17 15 13 17 16 14 12 15 13 11 10
8 5 8 10 6 18 16 15 15 18 20 23 25 24 25 24 23 21 20 20 19 18 18 18 19 20 21 22 22 23 21 17 12 13 13 13 17 16 14 12 11 10 11
3 7 9 11 9 15 18 18 19 18 19 21 10 20 28 27 25 23 22 23 21 18 18 18 19 21 22 22 26 28 28 27 23 19 18 12 18 19 17 13 12 12 14
8 10 10 11 14 15 17 22 23 23 22 27 30 43 13 26 26 26 26 24 22 18 19 17 21 22 24 27 29 27 22 19 15 9 12 14 19 18 17 15 15 17 16
10 12 11 12 16 17 18 20 21 22 27 22 25 20 18 24 23 21 25 23 21 19 17 17 22 24 26 30 30 24 23 22 17 14 11 18 19 19 19 18 17 17 18
10 11 14 12 17 16 17 18 17 16 24 16 12 13 21 24 24 21 26 24 22 19 18 20 22 24 28 32 30 26 24 24 18 12 11 21 20 20 20 18 18 18 18
10 11 11 10 14 12 16 17 18 18 19 19 17 21 22 25 23 30 29 24 23 18 21 22 23 24 28 32 30 27 21 20 13 12 13 19 20 20 20 19 19 18 17
13 11 11 9 11 10 12 15 18 16 15 15 16 16 20 22 33 34 27 28 25 21 23 23 25 25 28 31 29 28 21 14 18 14 13 20 20 19 19 18 17 16 16
14 11 9 10 12 14 17 14 16 18 19 15 14 23 11 0 31 33 29 28 22 23 24 24 24 25 28 30 31 23 22 18 16 11 17 21 20 19 18 16 16 15 15
13 11 13 8 12 15 18 18 16 19 20 16 15 22 11 8 26 32 32 30 27 25 26 26 26 27 30 34 26 20 22 13 13 10 20 20 19 19 17 16 15 14 14
17 16 14 9 10 17 19 15 22 18 17 20 20 25 14 15 32 36 33 33 30 29 29 28 28 25 34 29 17 18 21 16 12 9 18 18 17 17 16 15 14 13 13
16 20 15 11 11 13 19 22 17 15 18 20 24 27 21 21 38 33 32 32 32 31 30 30 24 22 31 21 16 21 15 14 11 11 19 18 16 15 14 14 13 11 11
13 19 14 10 10 12 17 17 16 15 21 16 23 23 26 29 39 37 34 33 33 32 31 26 24 22 21 18 18 23 15 10 9 13 17 17 14 14 13 12 11 10 9
12 19 14 10 10 11 14 14 15 16 17 25 25 25 31 26 42 43 39 38 36 33 31 20 23 23 20 19 20 18 16 16 11 9 14 16 15 14 13 11 10 9 8
14 19 16 14 11 13 12 11 12 17 18 21 22 23 25 34 51 48 43 41 34 30 26 24 24 23 20 19 19 19 18 17 12 12 8 12 14 14 13 11 10 9 8
15 19 17 13 11 11 11 12 11 15 17 19 21 21 36 44 51 48 43 39 33 32 26 28 26 23 21 18 16 17 15 16 19 12 9 8 9 11 12 11 10 9 9
16 20 15 13 11 8 8 8 7 9 14 26 29 37 49 56 54 50 48 42 35 34 31 30 27 23 22 17 15 16 15 15 14 17 17 12 11 12 11 10 11 12 13
20 22 16 15 13 11 12 12 11 18 27 34 39 44 45 52 53 50 42 37 32 32 28 28 26 21 23 18 18 15 15 15 13 16 18 20 20 19 18 17 17 18 17
22 19 16 16 17 16 15 16 18 23 27 32 32 39 53 50 47 47 37 34 32 28 27 26 24 24 24 24 20 18 15 15 20 19 18 19 20 22 20 24 24 21 21
24 20 16 18 18 18 22 26 31 33 33 33 32 25 31 36 40 40 41 34 31 34 36 30 29 26 28 27 23 14 13 7 13 17 22 23 22 23 23 22 22 25 26
22 19 17 21 22 21 24 28 35 42 42 37 34 36 37 37 36 30 31 30 33 35 30 28 26 25 22 22 25 25 14 9 7 8 15 14 21 24 23 27 27 28 28
24 22 20 24 26 24 25 35 44 42 36 34 39 34 35 33 31 34 33 38 40 33 32 29 26 24 23 21 18 21 20 17 14 13 11 18 18 21 26 27 26 32 30
24 25 25 27 30 27 29 36 40 38 36 37 41 37 37 37 41 42 37 32 35 32 32 29 26 22 25 23 20 16 14 13 14 13 17 19 21 23 25 29 28 26 29

GFSSE_850_spd_093.txt.gz
Wind_Speed
2 6 6 2 8 12 15 16 16 16 14 14 15 14 12 14 14 15 14 13 12 13 15 20 21 21 20 18 17 16 15 17 19 22 23 24 23 22 22 22 22 21 20
1 3 3 0 8 11 15 16 15 15 14 14 14 14 13 14 15 16 16 15 15 15 18 20 22 21 21 18 16 16 18 20 23 25 24 25 24 22 23 23 23 23 24
3 2 3 2 6 12 15 16 15 14 14 14 14 14 14 15 17 17 17 15 14 18 21 23 22 22 20 18 17 18 20 21 22 22 22 25 22 22 23 22 22 22 21
2 4 5 3 2 12 15 15 14 15 14 15 14 14 14 16 18 18 16 15 17 20 22 22 21 22 22 21 20 19 19 19 20 19 20 21 20 18 19 19 17 13 12
2 3 4 6 3 8 15 14 15 15 16 16 17 20 14 11 20 19 18 19 22 22 21 21 21 22 22 21 22 19 16 14 14 14 17 20 20 18 19 15 13 10 13
7 6 5 6 6 6 11 16 15 16 17 21 24 25 16 1 18 21 22 22 22 23 23 22 23 22 22 23 26 28 26 19 13 15 18 20 20 18 18 13 10 12 14
7 8 7 7 8 9 11 16 18 18 18 25 28 18 23 29 17 22 23 25 24 22 22 20 24 25 31 33 35 31 25 21 12 9 13 21 20 19 18 15 16 15 18
10 11 11 11 12 13 15 17 19 20 22 25 24 26 15 28 36 25 27 24 23 20 18 24 27 30 33 35 32 27 23 19 13 9 14 21 20 21 20 17 16 17 18
11 12 12 12 13 14 15 17 19 20 20 23 24 18 18 13 21 36 31 27 23 19 19 26 30 33 34 31 28 24 25 21 14 9 14 22 20 20 20 20 19 20 20
8 11 13 13 12 11 13 17 18 19 19 21 19 10 10 15 14 27 25 22 21 23 22 26 30 36 33 30 26 20 24 21 12 6 16 21 21 21 20 19 19 18 18
8 9 10 12 9 8 10 14 17 18 17 18 17 14 10 14 20 29 30 29 25 22 23 29 31 35 34 31 23 24 22 15 9 8 20 23 21 20 20 20 19 18 18
11 12 12 10 10 10 11 12 15 17 17 17 17 19 17 20 27 33 38 31 26 23 26 29 31 37 36 32 29 24 16 11 10 8 17 23 21 20 20 19 18 18 17
9 15 13 8 12 13 15 15 15 16 17 16 14 18 17 14 22 36 27 29 29 27 30 30 32 37 37 34 29 16 20 15 9 6 15 21 20 19 18 18 18 17 16
16 18 18 13 12 16 17 17 17 17 21 19 17 14 16 9 14 40 38 32 28 30 31 33 34 38 37 32 29 18 20 15 9 7 18 21 21 19 18 17 17 15 14
20 21 21 17 13 13 18 18 18 19 19 20 20 20 26 15 26 26 32 31 30 31 32 33 35 38 38 28 30 15 13 13 9 9 19 20 20 18 17 15 14 14 13
19 20 18 17 12 14 19 22 20 18 17 22 21 20 21 19 33 36 34 33 32 32 33 33 36 42 29 32 32 19 13 16 9 10 20 20 18 16 15 15 14 13 12
20 17 17 18 13 14 17 21 21 22 22 21 23 22 24 25 34 41 36 35 33 33 33 31 35 36 26 29 25 13 16 12 9 12 18 18 17 15 15 14 14 13 12
23 20 20 18 11 12 16 19 21 21 21 25 23 28 28 29 42 39 40 36 35 37 33 30 31 35 24 23 28 16 15 12 10 9 14 15 16 16 15 13 12 11 10
22 21 19 17 13 15 15 15 16 18 21 20 24 27 31 34 44 44 45 43 41 40 34 32 30 28 25 25 26 21 16 11 10 11 9 13 14 14 13 12 10 9 8
21 20 18 16 13 14 14 16 17 17 21 24 26 27 26 36 41 49 48 46 46 40 36 34 34 28 26 23 24 19 22 13 11 12 10 11 11 12 12 12 11 11 9
23 22 21 17 14 13 15 13 13 14 16 15 18 23 31 38 44 52 54 49 48 43 39 35 33 30 26 22 25 21 17 17 15 15 14 14 13 14 12 13 13 13 13
28 24 22 16 15 15 14 14 11 12 16 19 24 28 34 47 48 54 54 52 49 42 39 37 35 32 27 25 27 25 23 18 19 16 21 19 18 18 17 17 18 18 17
29 26 22 16 18 18 18 17 13 16 19 26 31 38 42 48 61 56 54 51 44 38 37 37 35 36 34 30 23 23 15 12 22 22 23 23 24 24 23 24 23 22 22
29 24 21 15 21 20 20 18 16 19 26 27 34 39 38 45 53 53 49 44 44 39 37 38 32 30 31 33 27 25 18 15 16 16 27 28 27 27 26 27 28 25 25
28 25 20 16 22 23 22 18 20 22 29 32 32 33 30 35 38 44 42 44 48 38 41 36 33 31 29 34 31 31 22 17 16 10 12 21 24 22 22 25 26 27 28
27 25 21 22 24 25 24 23 24 30 36 38 34 33 35 38 43 45 42 42 37 37 40 38 29 27 30 30 32 27 27 23 21 20 19 19 22 22 23 23 24 28 30

GFSSE_850_spd_096.txt.gz
Wind_Speed
2 4 4 7 11 15 18 19 19 18 18 17 16 14 12 16 20 19 17 18 17 17 19 20 20 23 21 19 18 17 17 16 17 18 20 20 20 20 20 19 19 19 19
5 5 4 4 8 13 17 18 19 19 18 16 16 14 13 14 15 17 17 16 17 18 19 21 23 23 22 19 17 16 16 19 21 23 22 22 20 20 21 21 21 20 20
6 4 5 4 8 12 15 17 17 18 17 17 16 14 12 13 15 16 17 16 16 17 20 21 21 22 21 18 17 16 18 22 24 25 25 24 23 23 23 21 21 20 21
8 5 5 3 3 9 14 16 16 16 17 17 18 17 17 16 16 15 15 16 17 19 21 23 23 23 21 18 18 20 22 23 22 22 24 22 20 20 20 22 21 18 18
5 3 3 3 0 3 11 15 16 18 18 20 22 24 24 22 17 15 14 15 18 21 23 25 25 24 22 20 21 21 21 22 21 21 22 20 19 17 18 17 15 13 15
6 4 2 3 3 5 10 15 17 18 20 22 24 25 25 23 23 17 11 14 20 21 22 25 26 25 23 22 21 22 21 20 20 19 23 21 19 18 16 14 12 13 16
7 6 5 8 7 9 12 15 17 19 21 22 26 26 26 23 19 15 15 18 23 23 24 25 25 25 26 25 24 22 20 17 16 18 23 21 19 18 18 13 11 14 17
10 8 9 10 11 11 14 16 18 21 22 24 28 27 28 25 25 25 21 27 24 23 25 27 28 28 29 30 25 22 22 19 16 16 21 21 19 20 18 15 17 18 18
12 12 12 13 14 15 16 17 19 22 23 24 23 23 23 15 22 22 22 25 29 27 23 31 31 33 36 32 24 24 21 15 11 15 21 22 22 22 19 18 18 18 17
13 13 13 14 15 15 17 18 20 21 22 23 23 24 21 20 21 22 27 41 33 25 27 33 36 38 37 33 28 22 19 15 12 11 20 22 22 21 20 19 20 19 19
13 11 11 13 14 15 16 18 18 20 22 23 24 22 20 17 18 22 38 38 35 27 34 34 38 39 33 28 25 23 18 14 10 12 20 23 23 22 20 19 19 19 17
13 13 12 10 12 12 10 13 17 21 24 24 25 24 21 15 20 22 32 36 31 28 33 37 39 37 30 26 24 25 18 14 9 15 20 25 23 21 20 19 18 17 17
12 16 13 9 9 11 11 13 15 20 22 23 23 23 19 18 19 20 29 34 34 30 34 38 42 37 29 30 26 22 18 13 13 13 21 24 23 22 20 19 17 17 16
21 18 15 12 12 11 14 15 14 16 19 22 22 20 19 21 16 25 37 43 39 32 35 40 43 38 32 28 25 25 19 16 11 10 17 20 21 21 19 18 17 17 15
23 21 19 16 14 13 16 17 16 18 20 22 20 19 24 20 16 25 27 44 40 31 35 41 45 40 34 26 21 23 19 15 10 8 17 21 21 19 18 17 17 16 15
27 25 21 19 15 13 17 17 17 20 21 23 23 20 25 20 16 19 49 38 35 32 36 40 46 42 35 24 22 23 19 15 9 10 17 20 19 19 17 16 15 15 14
32 26 24 20 16 12 16 18 21 21 28 25 24 23 23 22 22 30 50 37 34 35 38 40 45 43 31 25 24 18 16 15 10 11 16 19 19 18 16 15 15 14 13
33 29 25 20 16 12 18 20 24 26 25 26 24 27 25 24 27 32 38 34 35 37 39 42 47 41 33 25 22 21 20 14 9 11 16 18 18 17 17 16 15 13 13
30 28 25 20 17 13 18 20 23 26 27 27 26 30 27 28 30 36 38 37 37 39 41 44 46 42 37 26 21 23 18 13 11 13 15 15 15 16 17 16 14 12 11
29 27 23 20 17 15 15 17 20 23 26 25 28 31 31 32 33 40 42 41 42 41 41 47 46 40 38 30 24 22 16 12 11 13 13 14 14 16 15 14 13 12 11
31 30 27 22 18 16 16 22 22 23 26 26 26 29 33 35 36 39 45 45 47 46 44 45 47 38 32 34 27 20 15 11 11 11 12 15 15 17 15 16 15 15 14
34 32 27 22 18 15 15 18 20 23 25 28 30 28 29 39 45 46 50 49 52 48 45 43 46 39 34 36 33 26 21 19 17 15 15 16 16 15 16 16 17 16 15
37 33 28 23 19 16 16 17 20 20 20 21 23 29 37 34 41 47 51 54 55 49 46 43 42 39 37 33 30 30 15 12 23 21 21 19 19 20 18 18 19 18 18
39 33 27 23 20 18 18 20 21 21 22 22 22 24 29 34 38 47 53 55 57 48 46 43 40 40 37 36 33 27 19 15 18 15 27 24 23 23 21 21 21 21 21
39 34 29 24 21 18 19 19 19 19 21 19 23 24 29 37 43 47 51 60 58 50 43 41 41 37 36 33 34 33 25 15 19 16 18 29 29 27 26 24 23 23 24
39 33 30 26 21 18 18 20 20 22 22 23 27 29 28 36 42 50 57 61 57 49 46 39 38 40 36 32 35 27 30 25 21 21 16 15 26 24 22 22 24 24 23

GFSSE_850_spd_099.txt.gz
Wind_Speed
9 8 10 13 16 20 22 20 18 17 16 15 14 16 18 21 21 21 19 22 20 20 20 22 22 23 21 18 19 18 18 16 16 15 18 19 20 20 20 20 20 20 19
8 9 8 11 15 17 20 19 18 18 17 16 15 14 15 19 20 18 21 19 19 19 19 20 21 23 21 19 19 17 15 15 17 17 18 18 19 20 19 17 18 19 19
9 9 9 9 12 16 17 18 18 18 17 17 16 16 17 18 18 19 20 18 17 18 20 20 21 22 22 20 17 15 16 19 20 22 21 21 20 20 20 20 18 17 18
11 11 10 8 7 13 17 17 17 17 17 18 18 17 19 20 20 19 18 17 17 17 16 20 21 21 22 19 16 15 17 22 23 22 24 24 23 21 20 19 19 19 19
15 13 11 9 7 9 14 18 19 18 19 19 20 19 20 22 20 21 19 17 16 15 17 18 20 24 22 18 18 19 21 23 21 23 23 21 20 20 18 17 16 17 19
14 11 9 8 8 10 13 18 20 20 21 22 23 23 23 24 25 21 20 16 16 15 15 20 21 23 22 21 22 23 23 22 22 21 20 19 18 19 16 14 12 13 15
12 10 10 10 10 10 13 16 19 22 23 24 24 23 25 24 24 24 22 14 15 16 17 21 24 23 23 25 24 23 23 22 19 20 20 19 17 15 14 12 13 14 15
10 11 11 11 12 13 14 17 19 21 22 24 25 28 26 25 23 23 19 20 23 19 16 23 23 27 26 26 25 24 22 20 19 20 20 19 16 15 16 13 14 16 16
14 14 13 13 14 15 16 17 19 22 23 23 24 23 26 27 27 21 16 20 25 23 22 26 27 28 27 27 25 22 21 19 17 20 22 19 17 18 16 16 18 17 18
17 16 14 14 15 15 16 19 21 23 24 23 23 22 24 31 25 23 24 25 25 27 27 25 30 30 29 26 24 23 20 17 17 22 22 18 20 20 19 19 19 19 19
20 17 15 15 15 15 17 20 23 24 24 25 23 24 28 31 27 26 31 25 35 33 27 30 34 33 31 26 25 22 18 16 18 18 20 21 22 20 20 21 20 19 19
23 17 15 14 14 14 15 19 22 23 26 25 24 26 27 25 24 23 29 31 36 37 36 35 35 38 33 27 23 20 17 15 15 17 20 22 22 22 20 21 19 19 17
22 19 16 15 14 12 11 15 19 22 24 27 28 26 25 24 20 19 24 33 40 38 30 38 42 41 37 30 26 22 19 15 16 17 21 24 22 21 21 20 20 18 17
25 22 19 19 15 13 12 13 15 20 23 26 26 25 26 26 21 23 20 36 40 36 39 44 43 40 34 30 27 25 22 16 14 17 20 24 24 21 20 20 18 17 17
29 27 24 23 17 15 14 14 17 15 19 21 25 26 26 26 22 22 25 27 43 37 42 43 43 37 32 28 27 24 20 17 13 16 20 23 22 21 19 18 17 16 15
33 30 27 26 20 18 16 15 18 16 19 20 21 23 24 25 25 21 22 34 39 40 43 45 43 34 30 30 29 25 20 14 11 15 20 22 20 19 17 17 16 15 14
37 32 31 28 23 19 17 16 19 19 20 21 22 23 23 26 28 25 23 30 52 42 43 46 43 35 32 25 26 24 19 15 12 16 20 21 20 19 17 16 15 14 12
39 36 34 30 25 21 19 18 20 20 20 24 25 24 26 26 28 24 25 36 49 42 43 48 46 39 33 26 27 25 19 16 13 15 18 19 19 17 16 15 14 13 12
41 41 38 34 28 23 20 21 22 21 23 22 28 27 28 27 25 23 30 45 44 37 43 47 48 41 33 30 29 23 21 17 14 15 17 18 16 15 16 15 13 12 10
43 42 39 36 30 24 19 21 24 26 27 28 28 28 28 28 27 28 23 34 34 36 42 48 50 41 33 32 28 25 21 16 14 16 16 17 15 15 15 14 13 12 10
42 42 42 37 31 25 23 23 25 27 28 28 29 30 27 34 30 30 33 38 41 38 43 46 49 42 35 32 32 27 21 16 13 13 16 15 15 15 16 16 14 12 12
39 42 42 37 31 25 23 21 22 23 24 27 28 28 25 35 39 31 38 42 39 42 45 48 50 42 37 33 36 30 19 19 17 17 16 16 17 19 20 17 16 15 14
42 44 41 37 31 25 22 19 20 22 23 26 28 27 26 32 38 35 39 42 43 46 49 49 52 47 41 36 34 31 15 9 22 21 19 17 18 19 18 17 17 15 15
45 44 40 35 30 24 21 21 19 22 24 27 28 31 31 26 34 32 40 46 47 51 48 49 51 48 43 39 37 26 21 18 18 14 23 22 21 22 21 20 18 17 17
49 47 41 35 30 25 21 21 20 22 20 20 23 24 25 32 28 36 38 48 53 52 48 51 54 47 41 41 38 32 25 13 10 12 15 26 25 25 23 21 19 19 19
46 46 40 36 30 26 21 21 21 19 19 18 20 23 23 26 28 31 41 51 53 53 55 50 49 45 40 40 37 33 32 21 17 18 17 15 25 23 21 20 20 18 17

GFSSE_850_spd_102.txt.gz
Wind_Speed
13 12 13 14 14 17 20 18 16 16 19 20 20 22 22 21 21 22 21 21 20 20 20 19 19 21 21 19 18 20 19 18 18 18 19 19 20 21 22 22 21 20 20
14 13 13 13 14 17 18 17 16 15 17 18 19 20 21 19 21 23 22 22 20 20 21 21 21 20 19 18 20 18 16 16 16 18 17 19 18 19 19 18 18 18 18
13 12 12 12 13 16 18 17 16 16 15 17 17 18 19 18 21 22 22 21 22 21 19 19 20 19 17 19 19 17 15 15 16 17 18 20 19 17 17 16 17 19 18
14 13 13 13 14 15 18 18 18 17 16 16 17 18 19 21 21 23 22 19 19 21 19 19 20 20 19 18 18 16 15 16 18 20 19 22 19 19 19 18 18 18 19
16 14 14 13 14 15 17 19 19 18 17 17 17 18 19 21 21 22 20 17 18 16 15 18 19 19 21 20 17 15 16 18 22 19 23 25 22 20 19 18 18 19 19
18 16 14 13 14 17 19 20 21 20 19 19 20 22 22 23 24 24 23 18 14 12 13 15 18 20 22 19 17 16 18 21 19 20 22 20 19 18 16 16 17 18 19
19 17 14 15 15 16 19 21 22 22 22 22 22 23 23 25 26 25 28 19 22 16 15 15 20 22 23 19 18 19 21 21 22 22 19 18 17 17 14 15 16 18 19
17 16 15 15 14 15 17 20 22 23 23 23 23 23 24 26 26 26 22 24 21 16 11 13 21 23 22 20 21 22 21 21 20 18 17 16 15 15 15 12 14 16 16
19 16 15 15 15 16 17 18 20 22 23 23 23 24 24 24 24 24 25 25 19 21 28 23 27 26 24 23 23 23 21 20 18 17 17 17 15 15 15 14 17 17 16
20 18 17 17 16 16 17 19 21 22 21 21 22 24 23 21 22 24 25 19 14 22 23 28 31 32 26 25 23 23 22 19 19 19 19 18 17 16 16 19 18 18 18
23 21 20 19 17 16 17 20 21 22 22 21 20 19 20 21 26 26 22 19 19 24 25 26 27 27 28 24 24 23 21 20 19 20 19 17 19 19 20 18 18 19 19
28 25 21 20 18 17 17 18 23 25 24 24 24 24 24 26 26 28 27 26 31 28 30 30 28 26 27 27 26 23 21 18 16 18 18 19 21 20 20 20 19 19 18
30 26 22 21 18 18 17 18 21 26 27 27 27 28 25 25 27 32 29 28 32 31 30 31 30 31 31 29 29 25 20 16 16 19 20 20 22 21 21 21 20 18 19
31 28 25 23 20 18 18 17 18 25 23 27 27 26 28 29 30 30 26 26 33 33 36 35 36 39 34 31 28 25 20 16 13 18 20 22 21 21 21 19 19 19 19
35 31 29 26 23 19 20 18 18 19 20 21 25 29 30 30 27 28 25 25 27 39 45 40 42 40 37 33 27 24 21 16 16 20 24 24 21 21 21 20 19 19 18
36 35 32 30 26 22 23 20 19 19 18 20 23 27 28 28 28 27 25 24 29 37 46 40 41 41 38 31 27 26 19 16 17 21 24 24 21 21 21 20 19 18 18
35 38 37 33 30 26 25 22 21 20 19 20 21 23 25 25 26 26 23 22 21 30 31 37 40 41 37 30 27 27 23 17 16 19 22 22 22 20 19 19 18 17 15
38 41 41 37 34 29 26 23 22 22 22 20 22 22 23 24 25 27 27 22 31 35 35 39 43 39 34 31 31 27 22 17 17 19 21 21 20 20 18 18 16 14 13
34 42 44 41 38 31 27 24 23 23 23 22 23 21 22 24 24 28 29 25 36 42 44 44 44 40 35 32 29 27 22 19 19 19 19 20 19 19 18 17 14 13 11
25 34 44 43 40 33 27 25 25 25 25 22 22 22 26 26 25 27 27 26 38 45 53 48 45 39 36 31 31 29 23 22 18 18 18 20 18 17 16 15 13 12 11
25 31 40 44 42 35 32 29 28 29 28 25 24 25 27 27 26 30 23 25 41 50 50 47 46 41 35 31 33 30 26 22 18 18 19 19 18 18 16 14 13 11 11
23 30 37 44 42 38 34 29 28 27 31 29 27 28 29 25 27 27 23 20 36 40 40 40 45 45 41 35 39 34 24 21 21 19 20 20 19 20 19 18 16 14 14
26 31 36 45 43 40 34 30 26 25 28 28 29 29 28 25 24 27 31 33 41 41 45 46 46 49 45 40 40 34 18 12 23 21 22 22 21 21 19 18 16 16 15
29 32 37 42 43 41 35 30 27 26 26 28 28 28 26 26 24 30 34 38 40 40 47 48 46 50 46 46 41 30 25 23 24 16 24 23 21 21 20 18 20 17 16
31 33 37 40 44 40 33 29 25 24 23 23 25 28 26 24 14 38 31 36 40 42 47 47 50 54 49 47 46 32 23 14 26 12 21 29 26 24 23 23 20 19 18
30 33 37 42 43 38 31 28 25 22 22 22 22 25 26 30 30 21 31 33 43 46 46 47 51 52 50 48 45 34 29 21 21 20 11 13 24 23 24 22 21 20 18

GFSSE_850_spd_105.txt.gz
Wind_Speed
13 11 10 10 11 13 16 17 15 13 16 20 21 23 23 20 18 19 20 20 20 18 17 16 17 18 19 19 18 19 16 17 18 18 19 19 19 19 20 21 20 20 21
14 12 11 10 11 13 15 16 15 15 18 20 21 21 21 20 20 20 20 20 19 17 17 17 18 18 18 17 17 17 17 17 18 17 18 19 19 20 20 19 19 19 18
15 13 12 12 13 14 15 16 16 16 17 19 20 22 21 22 22 22 21 21 20 19 17 18 18 17 16 17 18 18 15 15 18 18 17 17 18 19 18 16 16 17 16
15 13 13 13 13 15 17 17 16 16 17 18 20 22 23 23 24 23 21 19 20 19 18 18 16 16 15 19 19 17 15 14 17 17 16 19 18 16 16 16 16 16 16
18 15 14 14 14 15 17 16 15 15 16 18 20 21 22 21 24 23 22 20 18 17 16 17 17 16 19 18 16 15 14 15 16 16 17 18 17 17 17 18 17 16 17
19 16 16 15 14 15 18 18 17 16 16 17 19 21 22 23 24 21 25 22 18 15 14 17 17 19 19 19 18 15 14 16 18 15 18 20 18 19 18 17 17 17 18
20 19 18 17 18 18 18 19 19 19 19 19 20 21 22 23 24 25 23 20 18 14 17 19 20 19 21 21 17 15 16 19 18 19 21 18 17 17 17 17 18 18 20
20 21 20 19 18 18 19 19 20 21 20 21 21 22 23 24 24 25 26 27 19 19 19 20 20 21 22 21 17 17 18 19 18 19 17 15 14 16 15 16 18 19 19
22 21 20 20 18 18 19 20 21 22 22 22 22 22 23 23 23 26 26 27 17 18 20 19 21 23 23 22 21 19 20 19 19 18 15 14 15 15 16 18 19 19 19
24 23 22 20 19 18 18 19 21 21 22 23 23 24 24 23 24 25 26 24 25 25 17 21 23 24 25 24 24 21 20 19 18 16 15 14 15 15 17 17 17 18 18
27 26 25 22 19 18 18 18 21 22 22 23 24 24 23 23 22 24 25 24 26 19 18 25 27 27 26 25 26 22 22 21 19 17 15 16 15 13 17 16 19 18 18
30 29 28 24 22 19 18 18 20 22 23 23 22 21 22 21 22 23 23 24 25 19 18 23 26 27 26 27 28 22 22 20 18 17 15 16 15 16 16 18 19 19 20
31 30 29 26 24 21 20 20 21 24 25 26 25 25 24 25 26 27 28 30 26 22 23 25 26 27 28 27 27 24 21 18 18 17 16 16 15 17 18 19 20 20 21
32 30 29 28 26 23 21 20 20 22 26 29 29 28 28 27 28 29 31 28 29 26 29 30 32 30 30 27 24 24 21 19 17 16 17 17 20 18 19 20 20 19 21
33 33 30 30 29 26 24 21 19 20 24 27 28 29 31 30 29 29 30 30 31 27 31 34 36 36 32 32 25 25 22 19 17 16 18 19 20 21 20 20 19 20 20
32 34 34 33 32 30 27 24 20 20 22 26 26 27 29 29 31 29 32 29 28 27 35 39 40 40 35 31 27 26 20 17 16 20 18 22 20 20 20 19 18 18 19
27 31 36 36 37 35 31 27 23 21 23 24 24 25 28 28 30 32 29 30 28 27 31 45 43 41 34 31 30 24 21 18 17 20 20 22 21 20 19 17 17 16 16
22 25 30 38 40 39 36 30 27 25 24 23 23 25 28 30 29 30 29 29 23 21 25 46 49 39 36 33 30 24 24 19 19 21 22 22 23 22 20 19 18 17 16
22 26 32 36 40 42 39 32 29 26 25 24 24 25 27 28 28 28 28 27 27 21 27 39 41 38 40 38 31 28 24 22 20 19 22 21 23 20 18 20 18 17 14
22 25 28 30 35 42 40 33 32 28 27 25 25 24 25 27 28 28 27 26 32 29 32 34 36 37 38 36 32 30 25 23 20 20 20 20 19 20 19 18 17 15 13
23 24 23 29 34 42 43 39 36 33 29 27 26 24 23 24 25 28 27 27 26 27 40 42 45 44 40 37 37 30 26 24 20 19 20 20 21 22 21 18 17 16 15
22 24 24 26 30 39 44 41 38 33 28 26 26 23 24 24 24 28 25 27 27 30 45 46 48 47 41 38 37 32 22 22 21 22 22 22 23 21 21 21 20 19 18
21 25 25 23 29 34 43 42 38 31 28 26 28 26 25 26 26 29 24 28 25 30 48 58 54 50 46 39 36 29 14 11 19 23 26 23 25 25 24 22 22 20 18
21 22 26 25 28 33 43 43 39 33 29 27 25 29 28 30 29 28 23 30 28 31 44 53 51 46 46 41 33 28 29 28 18 13 25 27 26 25 24 24 24 22 20
22 21 26 25 26 33 41 43 37 32 27 24 23 26 29 29 27 22 27 22 33 39 41 42 44 44 42 42 42 37 28 22 27 18 16 21 27 27 26 25 23 22 21
23 21 25 26 27 34 40 42 35 30 26 24 23 25 27 27 28 32 22 28 25 41 44 45 45 50 49 46 49 45 37 31 29 17 14 25 29 28 25 26 26 24 23

GFSSE_850_spd_108.txt.gz
Wind_Speed
13 9 9 9 9 11 13 14 14 14 13 14 19 20 21 18 16 17 17 18 17 16 16 15 15 16 17 16 16 15 14 15 16 16 17 19 19 20 19 19 18 19 19
15 12 9 9 8 10 11 13 13 13 13 17 20 21 21 18 17 18 18 18 18 16 15 15 15 16 15 17 17 15 14 15 16 16 16 17 18 19 19 19 19 19 19
14 12 10 9 9 11 12 13 14 13 14 18 19 21 23 19 18 19 19 18 16 15 15 15 15 15 16 16 16 15 15 15 15 16 15 14 17 18 16 15 17 18 18
15 11 10 9 11 11 12 14 13 14 15 18 19 20 21 20 19 20 18 18 17 16 15 15 15 16 17 17 17 16 14 14 15 15 14 15 15 16 15 15 16 16 15
16 12 10 11 10 10 13 14 14 14 15 18 19 21 21 20 19 20 19 17 16 16 15 14 12 16 16 18 18 15 13 13 14 14 12 16 12 14 13 14 14 15 15
18 15 13 13 13 14 15 15 15 15 16 17 19 20 21 23 23 22 20 19 16 15 14 11 12 15 17 19 18 15 13 12 13 13 13 18 15 16 16 17 16 15 15
19 18 16 15 15 16 16 17 17 17 17 18 19 21 23 24 22 24 22 20 17 19 17 12 21 19 21 21 19 16 13 13 13 14 14 17 17 18 16 15 14 16 17
19 18 17 17 16 17 17 19 19 19 19 19 20 21 22 23 24 24 22 22 20 19 16 14 19 21 22 21 19 16 15 18 15 17 15 14 16 16 15 15 16 18 17
21 20 19 19 19 18 18 19 19 20 20 21 21 21 22 21 22 24 25 25 23 18 16 19 21 22 22 23 20 18 18 18 16 16 14 14 13 15 16 17 18 17 16
24 22 21 21 20 20 20 20 21 21 22 21 21 21 22 22 23 25 27 25 26 18 18 18 21 21 23 25 22 21 19 20 15 14 12 14 14 14 14 17 17 18 18
27 25 24 23 22 22 20 21 21 22 22 23 22 22 22 22 22 25 25 26 26 21 21 18 18 23 24 24 22 21 20 17 16 13 14 14 14 14 14 17 17 19 18
29 28 26 26 24 23 20 18 21 22 22 22 23 23 25 24 21 22 23 25 24 24 24 19 20 23 24 26 24 22 20 17 14 13 16 15 14 13 13 17 18 17 19
22 23 27 27 27 25 21 17 20 22 20 21 22 22 21 24 23 24 22 22 23 25 25 19 22 23 25 28 26 24 21 17 13 12 14 14 14 11 15 17 16 18 19
23 24 27 31 29 27 21 19 17 22 22 23 24 25 25 24 24 24 22 19 22 24 23 24 25 26 27 29 25 21 16 14 13 13 14 15 14 14 16 16 17 18 19
23 24 24 31 32 30 28 22 21 19 23 24 26 27 26 27 27 27 29 29 28 29 23 24 28 29 26 29 26 23 19 17 15 13 12 17 15 16 16 17 17 18 19
22 23 23 28 30 31 31 29 27 24 20 22 27 28 26 27 30 29 29 30 30 32 26 29 31 32 30 31 26 24 20 18 17 15 11 18 18 17 17 18 17 18 20
20 20 24 27 28 34 33 33 31 28 24 23 23 26 27 29 28 30 30 31 32 33 32 28 33 34 34 36 30 25 21 18 16 17 18 18 21 19 19 19 19 19 19
18 20 22 25 27 32 35 35 35 31 27 25 24 24 27 27 29 30 29 30 31 32 30 29 29 42 40 42 33 24 21 18 16 17 15 19 18 18 20 19 19 19 17
17 18 21 25 29 30 33 36 37 33 31 27 26 26 25 27 30 31 30 32 33 31 30 30 27 34 44 39 28 24 21 17 17 18 18 18 19 19 21 21 21 19 18
16 19 21 23 28 28 31 38 38 36 34 31 29 27 25 28 29 32 32 30 29 31 28 28 36 44 53 42 34 23 21 18 18 19 19 21 19 19 20 22 21 19 18
20 24 25 25 26 25 35 41 42 41 38 35 32 29 27 27 28 31 32 29 29 28 30 25 35 46 41 40 32 23 21 19 17 18 18 18 19 22 18 17 18 16 19
18 20 23 24 24 24 33 39 40 43 39 36 32 30 27 26 26 27 28 29 26 26 32 31 37 32 37 42 37 31 20 18 19 17 18 20 21 18 20 22 22 19 17
13 17 20 20 21 24 25 33 34 37 36 37 34 31 27 25 24 25 25 25 27 23 30 38 40 45 52 46 39 26 16 12 21 19 20 20 23 22 20 20 18 19 19
14 16 18 18 20 24 26 33 40 42 40 36 33 30 27 26 24 26 24 25 23 24 31 37 42 51 53 49 43 28 23 24 27 13 19 22 21 22 22 21 21 22 21
15 14 14 15 19 23 28 36 37 29 25 22 21 23 25 25 25 27 26 27 26 24 27 32 47 52 56 49 46 27 25 25 21 16 19 23 22 23 23 23 21 21 21
14 15 12 15 19 22 29 35 33 29 25 24 24 23 23 25 27 29 26 24 25 25 30 27 48 52 50 46 44 33 32 25 23 17 13 24 24 24 23 22 23 21 21

GFSSE_850_spd_111.txt.gz
Wind_Speed
7 5 7 7 6 8 11 12 12 10 10 13 14 14 15 14 11 10 11 12 12 12 12 12 12 13 14 13 12 10 11 12 13 14 15 17 18 18 17 16 15 17 17
12 11 10 7 5 7 10 11 11 11 11 12 14 15 16 15 13 12 13 12 13 12 12 11 11 12 12 12 12 11 11 12 11 13 15 17 19 19 18 17 17 17 16
15 12 9 6 3 7 8 9 11 12 11 12 14 16 18 16 14 14 14 14 13 12 11 11 11 12 12 12 13 12 11 10 11 11 11 14 15 16 17 14 16 17 18
15 11 10 6 0 5 5 8 11 11 11 12 15 18 18 17 15 16 15 14 14 12 12 11 11 13 13 12 12 12 11 11 12 14 16 12 14 15 14 14 14 15 16
14 11 10 7 4 5 7 9 10 10 11 13 15 16 19 18 15 17 17 15 14 13 12 11 12 11 12 14 13 12 10 10 13 15 9 14 9 14 13 12 13 13 14
15 12 11 8 8 8 9 10 11 11 12 14 15 16 18 18 18 18 18 15 14 13 12 11 11 9 12 14 14 12 10 10 14 14 9 9 10 13 14 14 15 14 13
16 15 13 12 11 11 11 12 13 13 13 14 16 17 19 19 19 18 19 17 15 14 12 12 8 11 15 15 16 14 11 12 14 13 10 13 14 15 14 15 15 14 13
18 17 16 15 14 14 13 14 14 14 15 15 16 18 19 19 19 19 21 18 17 17 16 17 12 17 17 15 17 15 12 17 10 12 12 13 15 15 15 13 12 13 13
21 20 17 17 16 15 15 15 16 16 16 16 17 17 17 18 20 20 22 19 20 18 17 15 14 14 13 13 17 16 14 17 12 12 13 14 16 15 13 13 14 14 13
20 21 20 18 18 17 17 17 18 18 18 18 18 18 17 18 19 20 22 21 22 21 20 15 14 14 19 20 21 18 17 16 17 17 15 13 12 12 14 14 14 14 13
17 18 20 20 19 19 19 18 19 19 19 19 20 19 19 20 20 22 23 22 23 23 21 15 15 16 18 18 22 20 17 12 22 15 15 14 12 13 12 15 15 15 15
20 20 19 19 18 19 19 19 20 21 21 22 23 21 22 20 20 21 21 25 24 25 24 20 19 16 19 21 23 21 21 15 11 17 16 14 12 13 12 13 16 16 16
21 20 20 19 19 19 16 15 13 20 19 21 20 21 19 20 20 22 23 25 25 25 22 23 25 20 22 23 24 27 21 17 25 19 15 14 14 14 13 13 17 18 18
22 23 21 20 20 21 18 18 16 20 17 17 19 19 21 23 24 24 22 21 23 21 21 23 26 19 21 22 25 29 21 27 25 19 15 14 14 14 12 14 17 18 17
23 23 23 23 23 22 24 19 19 21 20 20 20 21 22 18 19 20 21 20 18 19 20 28 25 22 20 23 27 30 23 17 12 12 12 14 16 14 12 15 18 18 17
22 23 23 24 27 24 24 24 21 21 17 21 25 20 23 23 24 23 25 26 24 26 28 29 27 25 26 26 27 28 26 20 15 13 13 16 16 14 12 16 18 18 19
23 23 22 25 29 25 25 24 25 21 20 18 21 22 24 25 26 22 25 26 26 27 30 27 24 24 26 28 28 29 24 19 19 12 13 17 19 16 15 17 18 18 19
22 23 23 24 25 25 26 25 24 24 23 21 20 22 24 26 27 25 21 27 26 27 28 28 26 25 27 30 27 30 27 23 23 19 18 16 19 19 18 20 18 17 19
24 22 21 23 24 25 23 25 26 24 26 24 22 26 24 25 26 26 21 23 24 25 28 26 28 28 29 31 35 31 28 24 26 20 18 19 20 19 18 21 19 19 19
20 20 19 20 23 25 23 25 25 27 27 27 28 27 27 27 26 28 25 26 26 28 28 27 28 27 30 38 36 35 30 25 23 22 19 19 23 21 20 21 22 20 19
16 17 19 19 22 24 23 26 31 43 36 34 24 23 23 24 26 28 27 26 30 26 25 26 25 26 28 35 44 33 27 24 24 25 23 20 20 23 22 20 20 20 23
16 17 19 20 20 24 25 26 35 40 37 37 33 28 25 25 24 24 28 31 32 27 25 24 21 29 34 42 42 38 23 20 23 30 20 19 24 23 21 20 18 17 16
14 12 15 19 21 22 24 27 33 30 33 35 38 36 31 29 27 25 26 28 31 28 27 24 25 29 38 44 36 31 24 11 26 24 25 21 22 22 23 20 20 20 18
9 9 11 14 18 21 24 27 30 38 35 35 36 35 30 29 26 25 25 26 26 27 26 23 28 28 38 46 36 30 27 26 27 18 23 22 23 23 22 21 23 20 20
8 10 12 13 15 19 24 27 31 36 26 22 23 26 32 30 27 26 24 26 25 24 24 21 32 33 47 45 53 43 32 23 31 24 21 23 21 24 23 23 21 21 22
8 10 12 14 15 18 24 25 34 31 25 24 24 24 27 26 25 28 27 26 26 24 24 25 29 33 50 46 46 51 40 30 33 26 22 26 25 23 24 23 22 21 22

GFSSE_850_spd_114.txt.gz
Wind_Speed
6 7 7 8 7 6 6 6 6 7 10 11 11 10 9 9 7 6 9 10 10 9 9 9 10 11 10 9 8 8 8 8 7 8 10 14 15 15 16 16 15 18 18
11 14 13 10 6 5 7 7 8 10 11 11 11 11 10 10 8 7 8 9 9 10 10 10 10 10 9 9 9 8 9 9 9 10 13 16 17 17 16 13 14 17 18
18 16 13 9 4 4 5 7 9 10 10 10 11 12 12 12 10 8 9 10 9 9 9 7 8 10 9 8 8 9 9 9 11 11 12 17 17 15 15 12 15 16 17
18 15 12 9 4 5 7 9 11 10 9 10 12 12 13 14 11 10 11 10 10 9 8 7 7 6 7 8 8 7 8 10 11 16 13 8 16 15 13 14 16 17 18
17 14 13 11 7 5 8 11 11 10 9 9 11 11 13 14 11 11 11 11 10 10 10 8 7 4 6 7 7 7 7 11 12 12 10 6 13 14 13 14 16 17 17
16 15 13 11 9 8 9 11 11 10 9 9 10 11 12 14 14 13 12 12 11 10 9 9 9 5 7 8 7 8 8 11 12 11 9 8 9 13 14 15 15 14 14
16 15 13 12 11 10 11 11 11 10 10 10 11 11 13 15 14 13 12 12 11 10 10 9 9 4 7 9 8 7 7 12 13 12 13 12 10 13 14 14 13 15 13
19 17 15 13 13 12 12 12 12 11 11 11 11 12 12 14 13 14 13 14 13 13 13 12 11 4 9 8 9 8 7 11 8 16 17 10 11 13 15 14 14 12 11
20 18 18 15 15 14 14 13 13 12 12 12 12 12 11 11 13 14 15 15 14 14 12 12 11 8 9 9 8 8 9 11 8 13 9 7 14 15 15 13 12 12 10
21 20 18 18 16 16 16 15 15 14 14 13 13 12 12 11 13 15 15 16 17 16 16 14 10 9 12 11 12 11 10 13 9 7 10 10 16 15 14 13 12 12 11
19 21 19 19 19 18 17 17 16 16 15 15 15 15 15 15 16 17 17 19 20 18 18 16 13 11 14 17 15 18 16 15 14 16 15 14 15 12 15 14 13 13 12
19 19 20 19 20 20 19 19 19 18 17 17 17 17 17 19 18 18 19 22 21 20 20 19 15 13 14 16 16 21 22 21 17 21 15 14 13 13 11 13 15 14 13
21 19 19 19 19 20 19 20 19 20 20 20 20 20 19 21 20 19 18 20 21 22 24 25 22 18 18 17 19 22 22 25 13 10 15 14 14 12 12 11 16 16 14
25 23 21 21 23 24 17 18 13 16 17 19 19 19 20 18 20 22 24 25 26 25 26 27 26 23 24 20 20 22 24 27 19 20 24 19 18 16 14 13 15 16 14
29 29 28 26 26 24 23 22 19 22 19 15 14 15 18 22 23 23 24 24 23 24 24 25 25 21 24 19 19 24 26 28 24 20 18 19 16 17 15 13 17 17 17
24 32 34 31 29 27 26 26 24 25 25 21 22 19 19 20 20 21 22 23 22 19 20 24 26 24 21 21 20 24 27 29 22 17 19 18 14 19 15 14 18 18 19
23 18 33 33 31 29 29 26 26 27 27 22 24 24 23 26 25 23 22 22 22 22 23 27 26 24 23 22 22 25 28 27 23 19 22 19 17 19 14 13 19 18 20
27 25 20 32 30 28 29 28 28 26 26 26 24 22 26 24 28 28 24 22 23 23 26 27 27 25 25 25 22 23 27 24 26 23 24 18 20 20 16 15 18 18 20
27 25 26 25 27 26 27 29 28 31 31 29 24 28 24 25 25 27 24 22 21 22 26 28 28 25 25 25 26 22 25 25 22 21 22 17 19 21 19 19 19 19 20
28 27 23 24 25 26 26 23 28 29 28 31 30 29 33 28 28 28 26 24 22 21 24 27 28 24 23 24 25 22 24 31 27 26 23 20 17 20 22 22 22 19 18
22 21 13 13 15 24 27 28 27 31 32 32 33 32 36 30 30 28 27 25 28 28 27 25 25 24 25 19 26 27 31 30 29 26 24 23 22 23 20 22 25 23 22
13 10 11 13 16 17 24 29 29 31 32 34 33 33 27 26 28 28 28 27 27 26 26 24 22 22 25 22 25 30 23 27 29 24 26 26 26 24 24 22 22 25 24
10 10 12 16 18 21 25 26 25 31 37 40 38 34 29 31 29 29 25 28 27 29 28 26 23 25 25 28 27 26 18 14 34 29 24 27 26 25 26 23 21 22 20
9 8 12 12 15 18 22 28 31 38 41 41 39 35 34 32 29 30 24 26 26 27 28 27 26 25 24 28 27 35 32 30 33 25 30 25 24 26 28 27 24 19 21
8 10 7 10 13 14 19 26 33 38 38 34 30 32 37 33 33 30 28 30 27 26 24 25 27 26 23 29 34 42 32 30 34 36 29 25 27 27 24 28 29 24 27
7 6 9 10 12 14 16 21 31 35 36 32 28 26 31 36 34 32 31 31 27 25 25 26 22 23 26 25 36 43 40 38 35 35 32 31 28 28 24 24 23 25 25

GFSSE_850_spd_120.txt.gz
Wind_Speed
22 20 19 18 16 15 15 16 18 18 18 17 17 16 15 13 13 13 12 11 11 11 11 12 10 9 9 8 8 8 8 8 8 9 10 13 14 14 14 14 15 17 17
22 22 19 18 17 16 15 16 18 19 19 17 17 16 16 14 13 12 12 13 12 11 11 11 10 9 8 7 7 7 6 6 7 9 12 13 13 13 13 13 14 16 17
20 22 22 19 17 15 14 15 17 20 19 18 17 16 16 14 13 12 12 12 11 12 11 11 9 7 7 8 8 8 8 7 8 7 10 11 13 12 13 13 14 16 17
22 24 22 19 16 13 13 15 18 19 20 19 17 16 16 15 13 12 12 12 11 12 11 10 10 8 7 9 10 9 9 8 9 9 10 10 13 11 14 14 15 15 16
24 22 19 17 15 14 15 16 18 19 19 19 18 17 17 15 13 12 11 10 10 10 11 11 10 9 9 10 10 11 10 10 12 11 8 8 11 13 15 15 15 15 14
24 20 17 17 15 16 17 19 19 19 19 19 18 18 17 16 13 12 11 10 9 8 10 10 10 9 10 9 10 11 12 11 11 10 9 9 10 14 14 14 13 15 15
25 21 19 17 16 17 19 20 19 19 19 19 19 18 18 17 14 12 11 11 9 9 10 10 8 8 9 10 11 12 13 11 10 8 9 8 9 11 12 13 15 15 14
24 22 19 18 17 17 19 20 19 19 19 19 18 18 17 16 14 12 11 11 11 11 11 11 9 6 7 9 11 12 13 11 9 4 9 7 8 11 12 13 13 12 11
24 22 20 19 19 18 18 19 19 19 19 19 18 17 17 17 16 14 14 13 13 12 12 11 11 7 4 10 11 12 12 11 9 8 10 6 6 11 12 13 13 13 10
26 23 22 21 20 20 20 18 18 19 18 18 17 16 16 17 17 16 15 15 15 15 14 13 12 10 4 12 13 12 12 13 12 7 13 7 8 10 13 13 14 11 9
27 26 25 23 21 21 21 20 19 18 18 17 17 17 18 18 18 18 17 17 17 17 16 14 13 11 7 11 14 13 13 13 14 11 10 7 12 15 15 15 14 12 11
30 30 29 27 25 24 23 22 21 20 20 19 18 18 18 18 18 18 17 18 18 19 18 16 15 14 11 10 13 15 15 15 15 12 11 13 14 15 15 14 14 14 13
31 31 31 30 28 27 26 25 23 22 21 20 19 19 18 19 19 19 19 20 20 21 20 19 18 17 14 12 12 18 16 16 16 15 13 13 16 16 14 14 15 15 14
31 31 31 31 31 30 28 27 25 24 23 22 20 20 20 20 21 21 21 21 21 22 21 21 19 18 17 14 13 18 17 18 18 14 14 14 16 17 12 14 13 14 15
30 28 29 33 33 32 31 29 27 26 25 22 21 21 21 21 22 21 21 21 22 22 21 20 21 20 19 18 16 19 18 20 21 18 17 12 16 18 15 18 16 15 16
32 28 28 29 32 34 33 31 28 27 25 24 23 22 22 22 22 22 22 22 22 22 21 20 20 21 20 19 19 21 21 22 24 25 24 16 12 17 24 24 19 17 18
34 32 34 30 31 35 35 33 30 28 26 25 24 21 20 21 23 23 22 21 21 21 20 21 22 23 21 19 20 20 23 22 24 26 28 28 19 16 27 26 18 18 19
27 37 38 39 36 34 33 30 28 27 27 26 25 23 21 20 22 24 24 23 22 22 22 23 22 24 23 21 19 19 20 22 23 26 30 30 28 19 18 16 19 19 21
29 28 30 39 40 38 35 32 29 27 26 26 25 24 23 21 22 24 24 24 23 23 24 24 23 24 24 23 21 21 21 21 21 26 31 31 27 24 24 21 20 19 19
32 31 33 33 39 40 41 39 34 30 27 26 28 27 25 23 24 26 26 25 25 25 25 25 25 25 26 25 23 23 23 23 21 24 28 28 24 25 25 23 21 21 21
38 35 36 32 36 43 47 44 40 35 30 29 29 29 27 26 25 25 27 28 28 28 28 27 27 26 27 26 23 25 24 25 23 25 27 25 28 29 25 24 23 24 22
37 40 39 38 37 43 45 47 41 33 27 27 29 27 29 29 28 27 28 30 31 32 31 31 30 30 30 28 28 26 21 22 24 23 25 27 30 30 29 26 24 25 24
35 30 28 26 31 41 45 45 36 28 25 29 33 30 30 33 32 30 28 26 33 35 33 32 32 31 32 30 31 24 12 13 21 26 28 33 33 35 28 25 26 27 26
22 21 20 20 23 28 32 29 29 29 30 28 28 30 29 32 33 33 30 29 30 38 39 35 33 31 31 31 29 35 26 18 15 10 27 33 35 32 30 28 28 28 28
30 30 30 27 23 20 17 14 14 28 31 28 28 28 28 31 31 31 33 30 32 36 41 39 36 34 31 33 32 31 31 28 16 15 17 32 33 38 32 29 27 26 27
28 27 24 22 19 15 11 11 10 10 13 28 34 33 31 32 31 31 34 34 34 37 37 39 37 33 33 31 30 35 34 35 33 26 20 30 41 40 36 32 29 27 25

GFSSE_850_spd_123.txt.gz
Wind_Speed
24 29 28 26 24 21 21 20 20 20 20 19 18 17 15 14 14 15 12 11 11 12 11 12 12 10 11 10 9 9 9 9 7 8 8 10 13 13 12 13 14 15 15
28 29 26 25 22 22 21 21 21 21 21 20 19 18 16 15 15 15 13 12 12 12 11 10 10 10 9 9 9 9 8 7 7 9 12 13 13 13 12 13 14 15 15
27 27 25 24 22 22 22 21 21 22 21 21 20 19 17 16 16 15 13 12 12 12 10 10 9 9 9 9 8 8 8 8 8 10 11 11 13 12 13 13 14 15 15
25 26 24 23 23 22 21 21 21 22 21 21 20 19 18 16 16 15 13 12 11 12 11 10 9 10 9 10 10 9 9 9 10 9 8 9 11 11 13 13 13 14 15
26 25 24 23 22 21 20 20 22 22 21 21 21 20 19 17 16 15 14 12 11 12 11 11 10 10 11 10 10 9 9 9 11 9 7 8 9 12 13 13 14 14 14
28 25 23 22 21 20 20 20 21 22 21 21 21 21 20 17 16 15 14 12 12 12 11 11 11 11 11 11 11 9 9 11 11 9 8 8 7 13 13 12 12 12 11
30 26 23 21 21 20 21 21 22 22 22 21 21 21 20 18 16 14 13 12 11 11 11 12 10 11 10 11 11 9 11 11 8 8 8 8 9 10 10 10 11 13 14
29 26 24 23 22 21 22 22 22 22 21 21 20 20 20 18 16 14 13 13 12 11 11 12 11 11 11 12 11 10 10 9 8 6 9 7 9 10 9 9 12 13 10
27 26 25 24 23 22 22 23 22 22 21 21 20 19 19 18 16 14 13 13 12 11 11 12 11 8 11 12 12 12 11 10 9 5 9 7 8 9 10 11 12 11 9
30 27 25 25 25 25 24 23 22 22 21 21 20 19 19 18 16 14 14 13 13 13 12 13 12 8 7 13 13 13 13 13 10 8 7 9 8 10 9 12 13 12 9
32 30 27 25 26 27 26 25 23 22 21 21 21 20 20 19 18 17 15 15 15 14 14 13 12 11 7 13 15 13 13 13 12 10 7 11 9 12 13 16 15 13 10
37 33 30 28 26 27 27 26 26 24 24 23 22 22 21 20 19 18 17 17 17 16 15 15 13 13 10 12 13 15 14 14 13 14 11 15 11 14 15 15 15 14 12
39 36 34 31 30 28 28 28 27 27 26 24 23 22 21 20 20 20 19 20 20 19 18 17 17 15 14 13 13 15 16 15 15 14 13 11 11 15 16 16 13 14 14
42 38 37 34 32 31 29 28 27 27 26 24 23 23 22 22 22 21 21 21 21 21 20 19 18 16 15 14 13 14 17 15 16 16 15 13 14 16 17 15 13 13 14
42 40 37 37 35 33 33 31 29 27 27 25 24 24 24 23 22 22 22 22 22 22 21 20 19 18 17 17 16 15 16 16 15 18 16 14 15 16 19 16 14 13 14
38 37 38 37 37 37 35 34 32 30 28 27 26 25 24 23 22 22 22 24 24 23 21 20 18 17 18 19 18 17 17 18 17 18 19 18 17 16 18 19 17 15 15
38 35 35 35 37 37 37 36 35 33 32 31 30 28 26 24 24 23 23 24 24 23 22 20 19 19 19 20 20 19 19 20 21 21 21 22 20 18 17 19 25 23 19
40 40 34 34 32 35 39 39 38 36 34 33 31 30 28 26 25 24 24 24 23 22 22 22 21 21 21 22 21 20 20 20 23 24 25 26 28 26 22 18 24 20 21
46 43 42 37 34 34 34 37 38 36 35 32 29 28 27 25 23 23 25 24 22 22 24 23 23 23 22 22 22 21 20 21 19 21 25 27 30 30 29 24 13 17 21
47 48 44 41 37 35 37 36 35 35 34 31 28 28 26 25 23 22 23 24 24 25 25 26 25 24 23 21 21 22 22 23 22 22 25 27 30 31 30 26 22 20 21
32 34 44 39 33 36 42 43 41 39 36 32 29 27 26 25 24 23 23 23 26 27 27 26 25 25 23 22 20 23 24 24 25 25 24 23 28 30 27 23 23 22 23
35 36 36 38 35 36 41 42 44 43 38 35 28 23 24 27 25 24 23 23 26 28 28 28 27 28 27 25 23 24 20 24 26 27 28 26 28 29 26 29 26 23 24
33 39 41 38 36 35 41 46 47 43 42 32 27 26 26 25 27 26 25 23 24 27 28 31 32 31 30 28 28 24 11 17 19 28 26 29 28 29 28 33 29 25 25
34 38 41 32 36 40 42 43 42 42 39 35 30 26 25 26 28 28 28 25 25 26 26 31 33 32 32 32 29 31 31 24 13 15 20 28 29 33 32 33 31 29 28
22 25 25 25 27 31 33 30 30 27 28 25 27 27 26 25 29 31 30 27 29 31 30 29 33 37 36 35 32 32 30 32 31 20 18 24 26 31 34 38 33 31 29
38 35 33 30 27 23 23 24 26 23 31 33 31 27 27 28 28 30 32 29 27 30 32 31 30 36 39 35 34 30 34 31 36 31 22 20 25 31 36 38 35 34 31

GFSSE_850_spd_126.txt.gz
Wind_Speed
30 32 32 31 29 26 23 21 20 19 17 16 16 17 17 18 17 17 16 16 16 16 15 14 12 11 10 11 9 7 7 10 9 9 11 12 11 13 14 15 14 15 16
33 33 33 32 30 26 24 22 21 20 19 18 18 17 17 17 17 17 16 17 15 16 14 12 12 11 10 10 10 10 9 9 8 7 10 9 12 13 14 15 9 13 15
31 33 33 32 30 26 24 23 22 21 21 20 19 18 17 17 17 17 16 16 14 14 14 12 11 11 9 9 9 8 8 9 10 10 12 11 12 13 13 12 13 14 14
29 33 33 31 28 26 24 23 22 22 22 21 21 19 19 18 18 17 16 15 14 14 13 12 11 11 9 9 9 10 10 10 10 10 10 10 11 12 12 13 13 14 14
30 31 31 29 27 26 24 23 23 23 22 22 21 20 19 19 17 17 15 14 14 13 12 12 11 11 11 10 10 10 10 11 10 9 8 7 9 11 12 13 13 14 13
30 30 28 27 26 25 24 24 24 23 23 23 22 21 19 18 17 17 15 13 13 13 12 12 12 11 10 10 10 9 9 10 10 8 8 7 6 12 12 12 12 13 13
31 29 28 26 25 24 23 24 24 24 23 23 23 22 20 18 17 16 15 15 13 13 13 13 12 11 9 9 9 8 8 9 8 7 6 7 8 10 11 11 11 11 12
30 29 27 25 24 23 23 24 24 24 24 24 23 23 21 19 17 16 15 15 14 13 13 13 12 11 10 8 9 9 8 7 7 6 6 6 8 9 9 9 11 13 14
30 29 28 26 25 23 23 24 24 25 24 23 23 23 22 20 18 17 15 14 13 13 13 14 13 11 10 8 9 9 9 8 7 4 6 4 8 8 8 9 12 12 8
31 28 27 28 28 27 26 25 24 24 23 23 23 23 23 21 19 17 16 14 13 12 13 13 13 10 10 10 10 10 10 9 7 4 6 5 7 7 10 12 13 11 9
34 31 30 30 30 29 28 27 25 24 23 23 23 22 23 22 20 19 17 15 13 12 12 13 13 10 9 11 11 10 10 9 8 8 7 8 7 9 11 12 12 11 10
38 35 34 32 31 32 31 30 29 27 26 25 24 24 23 22 21 19 17 16 15 14 13 13 13 12 10 10 12 12 10 11 10 9 9 8 9 9 12 10 14 13 11
43 38 36 34 33 33 34 33 32 31 30 28 27 25 24 23 22 21 19 19 18 17 16 16 16 15 12 11 12 13 12 12 12 11 11 10 12 11 13 12 13 14 12
44 41 39 36 35 34 34 34 33 32 31 30 28 27 25 24 23 23 22 20 19 19 18 17 17 15 14 13 13 13 13 13 14 13 13 12 11 13 16 16 9 12 14
44 44 41 38 36 35 35 34 33 32 31 30 29 28 26 25 24 24 23 22 20 20 19 19 18 17 16 15 15 15 14 14 16 15 15 14 13 15 18 20 15 14 15
46 46 43 39 37 36 36 35 34 32 30 28 28 27 26 26 25 24 23 23 22 21 19 19 18 17 17 17 16 16 14 15 17 16 15 16 14 15 17 20 18 15 14
50 47 44 42 40 39 38 36 33 32 30 28 28 27 27 26 25 23 23 24 23 21 20 20 20 19 18 19 18 17 17 16 17 17 17 17 17 18 18 16 19 21 20
51 49 46 44 42 40 39 37 35 33 33 32 30 29 28 27 25 24 24 24 23 22 21 22 21 21 20 20 19 18 19 17 18 19 20 19 20 20 20 20 19 21 26
54 48 47 45 44 41 41 41 40 37 37 35 33 31 29 28 27 26 25 24 23 23 23 22 23 22 22 22 21 20 20 18 18 19 21 23 23 25 24 25 24 23 18
52 52 47 45 42 41 42 42 42 41 38 36 34 32 30 29 28 26 25 23 23 25 24 24 24 23 23 22 21 19 20 19 20 21 18 20 24 25 26 27 28 27 13
48 51 52 46 44 45 45 43 42 42 40 38 36 34 30 29 26 25 24 22 23 26 25 24 24 25 25 23 20 20 19 21 23 24 21 22 23 25 26 28 29 24 23
45 50 57 52 46 47 47 43 44 40 39 38 36 34 31 27 26 26 25 23 24 25 26 25 26 26 26 24 24 21 16 21 27 27 25 25 23 26 26 29 28 22 24
42 35 42 43 43 47 49 47 45 42 40 39 38 37 32 29 26 25 23 24 25 25 26 24 27 27 28 27 27 22 12 15 13 17 22 24 26 28 30 28 30 24 27
45 42 40 41 43 44 46 44 44 43 42 41 41 37 31 27 24 22 25 24 25 26 26 26 27 26 28 32 28 30 30 24 12 9 13 19 19 26 28 25 26 27 30
26 27 30 35 39 41 38 38 39 38 37 36 34 33 32 25 22 24 26 26 27 28 25 25 24 25 28 32 33 31 32 33 34 29 22 19 23 22 24 27 30 28 34
17 19 23 28 33 33 33 29 29 27 30 28 27 29 33 23 24 29 27 27 29 28 28 28 29 28 30 29 33 37 36 33 34 32 31 32 31 29 22 24 30 31 33

GFSSE_850_spd_129.txt.gz
Wind_Speed
30 31 30 28 28 25 23 21 20 20 23 24 23 23 22 20 18 18 18 18 18 17 17 14 13 13 12 12 10 6 7 11 11 9 12 12 11 12 13 14 13 13 13
34 34 32 29 29 27 25 23 21 20 21 23 23 23 21 20 19 19 18 18 17 17 16 14 13 12 12 11 10 10 10 11 11 12 12 9 10 10 11 13 10 11 13
33 34 32 30 30 28 26 24 22 21 21 21 22 22 21 20 19 20 18 18 17 17 15 14 13 12 11 11 11 10 9 9 10 11 11 13 11 13 13 10 10 13 14
32 33 33 31 31 28 26 24 23 22 21 22 21 21 21 20 20 20 19 18 17 16 15 14 12 11 11 10 10 10 10 11 11 11 11 10 12 12 11 12 12 13 14
32 32 31 32 30 28 26 25 23 22 22 22 21 21 20 20 19 19 18 17 16 15 14 13 12 11 11 11 11 11 11 11 11 10 10 9 10 11 11 12 13 13 13
32 31 30 30 29 27 26 25 24 23 23 23 22 21 21 21 19 18 18 16 15 15 13 13 12 12 11 10 10 10 10 10 10 9 9 8 9 11 12 12 12 12 12
31 29 29 29 28 28 26 25 24 24 23 23 23 22 21 20 19 18 17 16 16 15 14 13 12 11 10 10 10 9 9 10 8 7 7 7 10 12 13 13 13 13 13
30 31 30 29 28 27 26 26 25 25 24 23 23 23 22 20 19 18 17 16 15 15 14 13 11 10 9 9 9 9 9 8 7 7 7 7 10 11 11 12 12 12 14
31 31 31 30 28 26 25 25 25 25 25 24 24 23 22 21 19 18 17 16 15 15 15 13 12 10 8 8 8 8 8 7 7 5 6 5 9 10 10 10 12 13 14
32 33 33 31 29 28 27 26 26 26 25 25 24 24 23 21 20 18 17 17 16 16 15 14 12 10 8 8 7 7 7 6 5 3 7 5 7 8 9 11 14 13 10
34 35 34 32 30 29 28 28 27 26 26 26 26 25 25 23 21 20 18 17 16 16 15 15 13 10 8 8 7 7 8 7 6 5 6 5 6 8 9 10 10 11 10
38 39 37 34 32 31 31 31 31 30 29 29 28 28 28 26 24 21 19 18 17 16 16 15 14 12 10 9 9 9 9 8 7 7 8 6 7 7 9 11 10 12 11
38 40 40 36 34 34 35 35 34 33 32 31 30 30 29 28 26 24 22 21 20 19 18 17 17 15 12 10 10 9 10 8 8 8 8 9 8 9 10 12 9 10 12
40 41 40 38 37 37 37 37 36 36 34 34 33 31 30 30 28 26 25 23 22 22 21 19 18 16 14 12 11 11 10 10 10 10 9 10 11 11 11 14 13 11 12
42 40 42 41 41 40 40 39 38 37 36 35 34 32 31 30 29 27 26 25 24 22 22 20 18 17 16 14 13 13 12 12 11 13 11 12 13 12 13 16 18 12 12
31 45 45 44 43 42 41 41 40 38 37 36 34 33 32 30 29 28 27 26 25 24 22 21 18 17 16 15 14 14 14 13 13 14 14 13 14 14 14 16 20 19 16
36 36 48 47 45 44 44 42 41 39 38 37 36 34 33 31 30 28 26 26 26 24 22 21 20 19 18 17 16 16 16 16 15 15 15 14 15 15 16 16 18 21 20
33 38 47 50 49 47 45 44 42 39 36 36 35 35 34 32 30 28 27 26 25 24 24 23 22 21 20 19 18 17 17 17 17 17 17 17 17 16 18 18 18 17 21
38 40 40 53 53 50 47 45 42 40 38 37 36 35 33 32 30 28 26 25 25 25 25 25 25 24 23 21 19 19 18 19 19 19 18 19 20 20 20 21 21 21 20
38 42 40 44 54 52 50 47 43 42 41 40 37 34 32 31 31 29 28 27 26 27 27 27 26 25 24 21 19 20 19 19 19 21 19 19 18 20 21 23 23 24 24
39 44 42 41 51 55 55 52 49 47 46 43 40 38 36 34 33 31 31 29 29 29 28 28 27 27 25 23 20 21 21 20 21 22 21 20 19 17 20 23 24 24 25
40 42 44 44 43 53 56 53 51 47 46 44 43 42 40 38 35 32 32 31 29 28 28 29 30 29 26 26 25 23 19 21 26 26 25 24 22 21 22 21 24 24 25
42 41 44 44 44 51 54 53 50 46 43 44 45 44 43 39 35 33 33 31 29 28 28 28 30 30 29 27 27 23 10 14 11 14 21 24 24 22 22 24 25 27 25
41 40 40 44 46 47 54 53 50 46 45 44 43 44 40 38 34 30 31 30 28 26 28 28 28 28 28 31 27 30 31 20 9 6 11 12 13 17 20 23 23 25 25
34 34 36 41 40 45 50 50 47 45 43 41 39 37 36 35 34 32 30 23 23 26 28 30 27 28 31 31 29 30 32 34 32 25 15 17 21 23 23 23 20 18 20
20 26 32 34 37 36 37 38 36 38 37 34 31 30 30 34 36 33 35 29 35 28 31 30 31 30 31 31 31 30 32 34 36 34 31 27 26 23 26 24 24 17 20

GFSSE_850_spd_132.txt.gz
Wind_Speed
20 24 26 25 24 22 21 19 20 21 24 24 22 21 20 19 17 17 17 17 17 16 15 14 13 11 11 12 10 7 7 9 8 10 12 13 11 11 13 12 12 15 13
20 26 27 26 25 24 22 20 22 23 24 24 22 22 21 18 17 18 17 17 16 16 15 13 13 12 11 11 8 9 11 11 11 12 14 14 9 10 14 11 11 9 13
22 28 28 27 26 24 22 20 22 23 24 23 23 22 21 19 17 18 18 18 17 16 14 13 12 12 11 10 10 10 10 10 11 11 8 8 8 10 14 9 8 11 12
22 30 31 29 27 25 23 21 21 22 24 24 24 23 21 19 18 19 18 18 17 16 14 13 12 11 11 11 10 9 9 9 10 10 9 9 8 11 8 9 10 11 13
23 30 32 30 28 26 24 22 21 22 23 24 24 23 21 20 19 19 19 17 16 14 14 12 11 11 11 10 10 9 10 10 10 12 6 8 8 11 10 11 11 12 13
26 28 31 30 28 27 25 23 21 21 23 24 23 22 21 20 19 19 19 17 15 14 13 12 11 11 11 10 10 10 9 10 11 8 8 11 9 12 11 10 11 12 12
25 28 29 30 28 27 25 23 22 21 23 24 23 22 22 21 20 18 18 17 15 14 12 12 12 11 11 10 10 9 9 10 9 7 7 7 9 12 12 11 11 12 14
19 26 30 30 28 27 25 24 23 22 23 24 23 23 22 21 20 19 17 17 15 14 13 12 12 11 10 10 10 9 9 9 8 7 8 6 10 12 12 11 11 12 12
20 24 30 31 29 27 25 24 23 23 24 24 24 23 23 22 20 19 18 17 15 14 13 13 12 11 10 9 9 9 8 9 8 5 7 6 10 11 11 11 10 11 12
23 27 29 32 31 29 27 25 24 24 24 25 24 24 23 22 20 19 19 17 16 15 14 13 12 10 9 9 9 8 7 7 5 5 6 7 8 10 11 12 13 12 11
20 24 25 27 31 31 29 28 26 25 26 26 25 25 24 23 22 21 20 18 17 15 15 14 13 11 9 9 8 7 6 4 5 4 5 7 8 9 10 10 11 11 9
18 23 23 26 29 27 24 28 30 29 29 29 29 29 28 23 22 20 20 19 17 17 16 15 14 12 11 10 10 9 7 7 5 6 6 7 7 7 9 13 15 13 11
18 21 24 25 27 26 23 26 26 28 30 31 32 32 27 22 21 21 19 22 20 19 19 18 17 15 12 11 10 10 9 7 6 6 9 9 8 7 9 11 16 13 12
17 23 26 27 29 28 25 28 34 29 29 28 29 32 28 25 23 23 20 20 19 20 17 18 16 14 14 13 12 11 10 8 7 7 9 10 10 9 10 11 13 14 13
22 23 28 29 32 30 30 26 31 31 32 29 30 34 30 27 25 24 21 20 20 19 19 18 16 16 15 14 13 12 11 10 10 7 8 11 12 11 12 12 17 17 14
23 24 25 30 33 33 32 28 31 38 33 31 30 37 38 29 26 25 22 21 22 23 19 17 16 15 15 13 13 13 12 11 10 10 9 11 13 14 14 13 16 19 17
23 24 27 29 36 41 41 33 31 32 40 42 39 39 39 37 28 26 26 22 22 24 21 18 18 16 16 15 14 13 13 13 12 11 11 10 13 15 16 15 14 18 21
27 27 26 30 34 43 44 37 29 30 42 43 41 40 40 40 34 32 29 30 21 25 23 20 19 18 17 16 15 14 13 13 13 13 12 12 12 13 16 18 16 17 17
32 29 29 32 34 40 46 44 32 29 37 41 43 42 41 39 38 35 33 32 27 25 26 24 21 20 19 18 16 15 15 17 17 15 13 14 14 15 13 16 19 19 19
36 33 30 33 36 38 45 48 41 30 33 30 35 41 40 41 39 39 35 32 30 23 26 29 28 22 22 18 16 16 18 18 17 20 16 16 15 17 16 16 17 20 21
39 37 35 34 38 38 42 51 50 46 44 35 34 38 37 40 41 40 36 31 31 26 26 30 30 29 26 20 22 21 22 22 23 21 20 17 16 16 16 16 17 17 19
40 38 38 37 40 40 41 52 54 52 45 42 40 37 38 38 39 39 36 27 28 25 25 30 31 30 27 28 24 22 18 24 28 25 21 20 19 17 18 19 18 22 21
40 41 38 39 41 41 41 41 49 44 30 28 30 33 33 35 38 36 33 28 24 26 25 29 29 30 28 30 26 18 11 16 10 14 23 20 20 24 20 18 19 22 21
42 39 37 38 41 42 40 42 48 54 42 38 40 29 29 33 31 31 32 31 30 29 27 25 25 28 25 28 30 31 26 15 12 10 10 13 16 16 17 20 22 21 23
35 36 33 37 38 41 40 41 44 49 47 33 27 27 32 34 31 33 33 34 32 28 21 15 18 22 28 30 30 34 33 33 35 25 20 11 14 18 18 17 18 19 19
8 20 25 27 33 40 42 40 39 41 31 29 30 32 29 29 30 33 37 38 35 28 13 14 28 25 25 31 38 34 33 31 32 27 26 27 22 18 19 18 18 18 23

GFSSE_850_spd_135.txt.gz
Wind_Speed
9 14 24 21 20 19 18 17 15 15 18 19 17 16 15 14 13 13 14 14 13 13 13 12 11 9 8 9 8 5 5 6 7 11 12 12 13 9 10 12 12 9 9
9 16 25 22 21 20 19 17 16 16 20 20 17 16 16 14 13 14 14 13 14 13 12 12 10 9 9 8 5 4 7 7 10 11 12 12 12 13 14 9 10 6 8
11 21 26 24 22 21 20 18 17 17 21 20 18 17 16 14 13 14 14 14 14 13 11 10 10 9 9 6 6 7 6 6 9 11 8 5 6 9 9 10 5 7 11
12 21 28 26 23 22 21 19 17 17 21 20 19 18 17 15 14 14 15 14 13 12 10 10 9 8 7 7 7 6 5 5 6 9 10 6 6 11 9 7 8 9 10
15 17 28 26 24 22 22 19 17 17 21 20 20 19 18 16 15 15 15 14 13 11 10 9 8 8 7 6 6 5 5 6 11 8 10 8 6 9 8 8 9 9 10
13 14 25 27 25 23 22 19 17 18 20 21 21 20 18 17 16 15 15 14 13 11 10 9 8 7 7 7 6 6 6 9 10 4 7 7 5 7 9 10 10 10 10
11 14 20 27 26 24 22 19 18 18 20 22 22 21 20 18 17 16 15 14 13 12 10 9 8 8 7 7 6 6 6 10 7 3 1 6 7 8 9 9 10 11 10
11 14 21 28 27 25 22 20 19 19 20 22 23 22 21 19 18 17 16 15 14 12 10 9 9 8 7 7 6 6 7 9 6 4 4 6 7 7 9 9 9 8 10
10 13 15 29 27 25 23 21 20 20 21 22 23 23 22 20 19 18 17 16 14 12 11 10 10 9 7 7 6 6 7 10 9 4 5 6 5 7 8 9 9 9 10
8 13 14 21 28 26 25 23 21 21 21 22 23 23 22 21 20 19 18 16 15 13 12 11 10 9 8 7 6 6 6 8 7 3 7 7 4 8 9 8 9 9 10
7 14 16 17 20 24 26 25 23 22 22 23 24 24 24 23 22 21 19 18 16 14 13 12 11 10 8 8 7 7 6 4 3 3 7 7 6 8 9 9 8 9 9
10 14 18 21 21 22 20 23 27 26 26 27 28 27 26 23 23 21 21 19 17 16 15 13 13 11 10 8 10 9 7 3 4 5 9 8 6 7 8 10 11 12 9
15 14 20 23 24 24 23 21 23 23 28 29 29 29 27 23 23 21 21 21 20 18 17 16 16 14 10 11 9 7 5 6 6 7 7 10 7 7 7 10 12 13 10
19 16 19 25 26 26 25 25 23 25 26 26 27 30 28 27 25 27 23 19 19 19 16 16 14 13 12 11 11 8 9 8 8 7 11 12 11 9 8 10 12 15 12
22 21 19 25 29 28 30 25 26 28 27 27 28 31 30 27 27 26 23 22 22 20 18 17 15 13 14 14 13 13 11 10 9 9 10 12 11 11 10 10 12 15 14
21 21 21 25 32 29 30 30 28 30 27 29 30 32 34 30 28 27 25 25 23 24 18 23 19 17 17 13 13 14 13 12 12 10 9 13 12 13 13 13 13 15 18
24 22 22 23 29 34 35 35 29 28 30 31 31 32 33 33 29 27 28 26 24 24 23 21 17 16 14 14 13 14 14 14 13 13 11 11 14 13 14 15 15 15 20
31 27 24 24 30 36 37 36 34 31 36 30 32 31 37 38 29 29 26 26 24 28 27 21 20 23 22 15 15 13 12 15 16 17 15 14 12 15 13 13 17 17 17
30 31 30 29 27 35 40 38 39 37 36 36 40 31 39 38 35 29 27 28 26 24 29 26 21 25 19 20 19 18 14 14 13 14 15 17 15 15 15 16 14 18 20
31 32 33 33 34 35 38 42 41 38 38 33 32 35 29 39 41 35 29 28 31 24 26 27 23 20 20 19 17 20 20 19 16 16 17 17 16 17 18 17 19 19 22
31 32 37 36 36 31 40 42 41 42 41 38 37 35 36 36 43 42 32 29 30 27 23 27 27 24 23 19 20 20 19 20 19 19 16 16 21 18 17 18 21 20 20
38 37 38 41 41 42 40 44 44 42 43 46 40 36 35 33 39 44 45 28 29 27 26 25 27 27 24 24 21 15 14 17 23 26 23 19 21 18 19 19 20 19 21
38 43 37 40 41 41 40 43 41 40 40 43 39 33 36 36 42 40 44 37 25 24 26 30 28 28 27 26 25 16 10 17 16 15 15 20 23 21 22 19 20 22 22
38 31 37 37 39 41 49 43 46 45 47 44 44 45 37 41 40 37 40 40 29 26 24 28 27 28 26 26 27 31 28 20 9 10 12 13 20 23 23 19 21 23 21
33 24 23 35 37 40 45 45 47 47 45 39 42 42 37 33 34 35 36 36 33 30 31 26 21 24 24 25 24 23 27 31 28 25 18 12 14 16 19 22 19 19 20
30 25 17 17 35 38 45 43 54 51 42 41 40 39 38 36 37 34 32 29 35 38 32 29 21 17 18 21 24 28 26 26 25 28 27 28 27 20 21 20 23 21 23